Wetterdaten: aktuell Samstag, 08.05.2021 02:30
Datum Zeit Temp. A. Feuchte A. Luftdruck Regen Sonnenschein Regendauer ET UV Solar Taupunkt Windchill Windben Empfang
08.05.2021 02:30 2,8 C 85 % 1017,6 hPa 0,0 l/m 0 min 0 min 0,000 mm 0,0 UV-I 0 W/m 0,5 C 2,8 C 1,6 km/h (1 Bft) 96 %
08.05.2021 02:28 2,9 C 85 % 1017,7 hPa 0,0 l/m 0 min 0 min 0,000 mm 0,0 UV-I 0 W/m 0,6 C 2,9 C 0,0 km/h (0 Bft) 96 %
08.05.2021 02:26 2,9 C 85 % 1017,7 hPa 0,0 l/m 0 min 0 min 0,000 mm 0,0 UV-I 0 W/m 0,6 C 2,9 C 4,8 km/h (1 Bft) 98 %
08.05.2021 02:24 3,0 C 85 % 1017,7 hPa 0,0 l/m 0 min 0 min 0,000 mm 0,0 UV-I 0 W/m 0,7 C 3,0 C 0,0 km/h (0 Bft) 96 %
08.05.2021 02:22 3,1 C 85 % 1017,7 hPa 0,0 l/m 0 min 0 min 0,000 mm 0,0 UV-I 0 W/m 0,8 C 3,1 C 1,6 km/h (1 Bft) 98 %
08.05.2021 02:20 3,1 C 85 % 1017,7 hPa 0,0 l/m 0 min 0 min 0,000 mm 0,0 UV-I 0 W/m 0,8 C 3,1 C 6,4 km/h (2 Bft) 98 %
08.05.2021 02:18 3,1 C 85 % 1017,7 hPa 0,0 l/m 0 min 0 min 0,000 mm 0,0 UV-I 0 W/m 0,8 C 3,1 C 12,9 km/h (3 Bft) 94 %
08.05.2021 02:16 3,1 C 85 % 1017,7 hPa 0,0 l/m 0 min 0 min 0,000 mm 0,0 UV-I 0 W/m 0,8 C 3,1 C 4,8 km/h (1 Bft) 94 %
08.05.2021 02:14 3,1 C 85 % 1017,9 hPa 0,0 l/m 0 min 0 min 0,000 mm 0,0 UV-I 0 W/m 0,8 C 3,1 C 3,2 km/h (1 Bft) 98 %
08.05.2021 02:12 3,1 C 85 % 1017,9 hPa 0,0 l/m 0 min 0 min 0,000 mm 0,0 UV-I 0 W/m 0,8 C 3,1 C 12,9 km/h (3 Bft) 98 %
08.05.2021 02:10 3,2 C 85 % 1018,0 hPa 0,0 l/m 0 min 0 min 0,000 mm 0,0 UV-I 0 W/m 0,9 C 3,2 C 6,4 km/h (2 Bft) 96 %
08.05.2021 02:08 3,2 C 85 % 1017,9 hPa 0,0 l/m 0 min 0 min 0,000 mm 0,0 UV-I 0 W/m 0,9 C 3,2 C 6,4 km/h (2 Bft) 98 %
08.05.2021 02:06 3,2 C 85 % 1017,9 hPa 0,0 l/m 0 min 0 min 0,000 mm 0,0 UV-I 0 W/m 0,9 C 3,2 C 4,8 km/h (1 Bft) 96 %
08.05.2021 02:04 3,2 C 85 % 1017,9 hPa 0,0 l/m 0 min 0 min 0,000 mm 0,0 UV-I 0 W/m 0,9 C 3,2 C 9,7 km/h (2 Bft) 95 %
08.05.2021 02:02 3,1 C 85 % 1017,9 hPa 0,0 l/m 0 min 0 min 0,000 mm 0,0 UV-I 0 W/m 0,8 C 3,1 C 8,0 km/h (2 Bft) 96 %
08.05.2021 02:00 3,1 C 85 % 1017,9 hPa 0,0 l/m 0 min 0 min 0,000 mm 0,0 UV-I 0 W/m 0,8 C 3,1 C 4,8 km/h (1 Bft) 96 %
08.05.2021 01:58 3,1 C 84 % 1017,9 hPa 0,0 l/m 0 min 0 min 0,000 mm 0,0 UV-I 0 W/m 0,7 C 3,1 C 1,6 km/h (1 Bft) 96 %
08.05.2021 01:56 3,1 C 85 % 1017,9 hPa 0,0 l/m 0 min 0 min 0,000 mm 0,0 UV-I 0 W/m 0,8 C 3,1 C 3,2 km/h (1 Bft) 96 %
08.05.2021 01:54 3,1 C 84 % 1017,9 hPa 0,0 l/m 0 min 0 min 0,000 mm 0,0 UV-I 0 W/m 0,7 C 3,1 C 1,6 km/h (1 Bft) 98 %
08.05.2021 01:52 3,1 C 84 % 1018,0 hPa 0,0 l/m 0 min 0 min 0,000 mm 0,0 UV-I 0 W/m 0,7 C 3,1 C 6,4 km/h (2 Bft) 98 %
08.05.2021 01:50 3,2 C 84 % 1018,0 hPa 0,0 l/m 0 min 0 min 0,000 mm 0,0 UV-I 0 W/m 0,8 C 3,2 C 0,0 km/h (0 Bft) 95 %
08.05.2021 01:48 3,2 C 84 % 1018,0 hPa 0,0 l/m 0 min 0 min 0,000 mm 0,0 UV-I 0 W/m 0,8 C 3,2 C 1,6 km/h (1 Bft) 98 %
08.05.2021 01:46 3,2 C 84 % 1018,0 hPa 0,0 l/m 0 min 0 min 0,000 mm 0,0 UV-I 0 W/m 0,8 C 3,2 C 1,6 km/h (1 Bft) 98 %
08.05.2021 01:44 3,2 C 84 % 1018,0 hPa 0,0 l/m 0 min 0 min 0,000 mm 0,0 UV-I 0 W/m 0,8 C 3,2 C 1,6 km/h (1 Bft) 98 %
08.05.2021 01:42 3,3 C 84 % 1018,0 hPa 0,0 l/m 0 min 0 min 0,000 mm 0,0 UV-I 0 W/m 0,9 C 3,3 C 1,6 km/h (1 Bft) 98 %
08.05.2021 01:40 3,3 C 83 % 1018,0 hPa 0,0 l/m 0 min 0 min 0,000 mm 0,0 UV-I 0 W/m 0,7 C 3,3 C 0,0 km/h (0 Bft) 98 %
08.05.2021 01:38 3,3 C 83 % 1018,0 hPa 0,0 l/m 0 min 0 min 0,000 mm 0,0 UV-I 0 W/m 0,7 C 3,3 C 1,6 km/h (1 Bft) 94 %
08.05.2021 01:36 3,4 C 83 % 1018,0 hPa 0,0 l/m 0 min 0 min 0,000 mm 0,0 UV-I 0 W/m 0,8 C 3,4 C 4,8 km/h (1 Bft) 94 %
08.05.2021 01:34 3,4 C 83 % 1018,0 hPa 0,0 l/m 0 min 0 min 0,000 mm 0,0 UV-I 0 W/m 0,8 C 3,4 C 1,6 km/h (1 Bft) 98 %
08.05.2021 01:32 3,4 C 83 % 1018,0 hPa 0,0 l/m 0 min 0 min 0,000 mm 0,0 UV-I 0 W/m 0,8 C 3,4 C 1,6 km/h (1 Bft) 98 %
08.05.2021 01:30 3,4 C 83 % 1018,0 hPa 0,0 l/m 0 min 0 min 0,000 mm 0,0 UV-I 0 W/m 0,8 C 3,4 C 1,6 km/h (1 Bft) 98 %
08.05.2021 01:28 3,5 C 83 % 1018,0 hPa 0,0 l/m 0 min 0 min 0,000 mm 0,0 UV-I 0 W/m 0,9 C 3,5 C 1,6 km/h (1 Bft) 96 %
08.05.2021 01:26 3,6 C 83 % 1018,0 hPa 0,0 l/m 0 min 0 min 0,000 mm 0,0 UV-I 0 W/m 1,0 C 3,6 C 12,9 km/h (3 Bft) 96 %
08.05.2021 01:24 3,6 C 82 % 1018,0 hPa 0,0 l/m 0 min 0 min 0,000 mm 0,0 UV-I 0 W/m 0,8 C 3,2 C 12,9 km/h (3 Bft) 97 %
08.05.2021 01:22 3,6 C 82 % 1018,0 hPa 0,0 l/m 0 min 0 min 0,000 mm 0,0 UV-I 0 W/m 0,8 C 3,6 C 0,0 km/h (0 Bft) 100 %
08.05.2021 01:20 3,6 C 82 % 1018,2 hPa 0,0 l/m 0 min 0 min 0,000 mm 0,0 UV-I 0 W/m 0,8 C 3,6 C 1,6 km/h (1 Bft) 98 %
08.05.2021 01:18 3,7 C 82 % 1018,1 hPa 0,0 l/m 0 min 0 min 0,000 mm 0,0 UV-I 0 W/m 0,9 C 3,7 C 1,6 km/h (1 Bft) 100 %
08.05.2021 01:16 3,7 C 82 % 1018,1 hPa 0,0 l/m 0 min 0 min 0,000 mm 0,0 UV-I 0 W/m 0,9 C 3,7 C 1,6 km/h (1 Bft) 100 %
08.05.2021 01:14 3,8 C 81 % 1018,2 hPa 0,0 l/m 0 min 0 min 0,000 mm 0,0 UV-I 0 W/m 0,8 C 3,8 C 0,0 km/h (0 Bft) 100 %
08.05.2021 01:12 3,9 C 81 % 1018,2 hPa 0,0 l/m 0 min 0 min 0,000 mm 0,0 UV-I 0 W/m 0,9 C 3,9 C 0,0 km/h (0 Bft) 100 %
08.05.2021 01:10 3,9 C 81 % 1018,2 hPa 0,0 l/m 0 min 0 min 0,000 mm 0,0 UV-I 0 W/m 0,9 C 3,9 C 1,6 km/h (1 Bft) 100 %
08.05.2021 01:08 4,0 C 81 % 1018,1 hPa 0,0 l/m 0 min 0 min 0,000 mm 0,0 UV-I 0 W/m 1,0 C 4,0 C 1,6 km/h (1 Bft) 100 %
08.05.2021 01:06 4,1 C 81 % 1018,2 hPa 0,0 l/m 0 min 0 min 0,000 mm 0,0 UV-I 0 W/m 1,1 C 4,1 C 0,0 km/h (0 Bft) 98 %
08.05.2021 01:04 4,1 C 80 % 1018,1 hPa 0,0 l/m 0 min 0 min 0,000 mm 0,0 UV-I 0 W/m 1,0 C 4,1 C 0,0 km/h (0 Bft) 98 %
08.05.2021 01:02 4,1 C 80 % 1018,0 hPa 0,0 l/m 0 min 0 min 0,000 mm 0,0 UV-I 0 W/m 1,0 C 4,1 C 0,0 km/h (0 Bft) 100 %
08.05.2021 01:00 4,2 C 80 % 1018,0 hPa 0,0 l/m 0 min 0 min 0,000 mm 0,0 UV-I 0 W/m 1,1 C 4,2 C 0,0 km/h (0 Bft) 100 %
08.05.2021 00:58 4,3 C 80 % 1018,1 hPa 0,0 l/m 0 min 0 min 0,000 mm 0,0 UV-I 0 W/m 1,2 C 4,3 C 1,6 km/h (1 Bft) 100 %
08.05.2021 00:56 4,3 C 80 % 1018,2 hPa 0,0 l/m 0 min 0 min 0,000 mm 0,0 UV-I 0 W/m 1,2 C 4,3 C 1,6 km/h (1 Bft) 100 %
08.05.2021 00:54 4,3 C 79 % 1018,3 hPa 0,0 l/m 0 min 0 min 0,000 mm 0,0 UV-I 0 W/m 1,0 C 4,3 C 1,6 km/h (1 Bft) 100 %
08.05.2021 00:52 4,4 C 79 % 1018,3 hPa 0,0 l/m 0 min 0 min 0,000 mm 0,0 UV-I 0 W/m 1,1 C 4,4 C 0,0 km/h (0 Bft) 100 %
08.05.2021 00:50 4,4 C 79 % 1018,2 hPa 0,0 l/m 0 min 0 min 0,000 mm 0,0 UV-I 0 W/m 1,1 C 4,4 C 1,6 km/h (1 Bft) 98 %
08.05.2021 00:48 4,5 C 79 % 1018,2 hPa 0,0 l/m 0 min 0 min 0,000 mm 0,0 UV-I 0 W/m 1,2 C 4,5 C 1,6 km/h (1 Bft) 100 %
08.05.2021 00:46 4,6 C 79 % 1018,2 hPa 0,0 l/m 0 min 0 min 0,000 mm 0,0 UV-I 0 W/m 1,3 C 4,6 C 1,6 km/h (1 Bft) 100 %
08.05.2021 00:44 4,6 C 79 % 1018,2 hPa 0,0 l/m 0 min 0 min 0,000 mm 0,0 UV-I 0 W/m 1,3 C 4,6 C 1,6 km/h (1 Bft) 100 %
08.05.2021 00:42 4,6 C 79 % 1018,2 hPa 0,0 l/m 0 min 0 min 0,000 mm 0,0 UV-I 0 W/m 1,3 C 4,6 C 1,6 km/h (1 Bft) 96 %
08.05.2021 00:40 4,6 C 79 % 1018,2 hPa 0,0 l/m 0 min 0 min 0,000 mm 0,0 UV-I 0 W/m 1,3 C 4,6 C 0,0 km/h (0 Bft) 100 %
08.05.2021 00:38 4,7 C 79 % 1018,2 hPa 0,0 l/m 0 min 0 min 0,000 mm 0,0 UV-I 0 W/m 1,4 C 4,7 C 0,0 km/h (0 Bft) 98 %
08.05.2021 00:36 4,7 C 78 % 1018,2 hPa 0,0 l/m 0 min 0 min 0,000 mm 0,0 UV-I 0 W/m 1,2 C 4,7 C 0,0 km/h (0 Bft) 96 %
08.05.2021 00:34 4,7 C 78 % 1018,2 hPa 0,0 l/m 0 min 0 min 0,000 mm 0,0 UV-I 0 W/m 1,2 C 4,7 C 0,0 km/h (0 Bft) 97 %
08.05.2021 00:32 4,7 C 78 % 1018,2 hPa 0,0 l/m 0 min 0 min 0,000 mm 0,0 UV-I 0 W/m 1,2 C 4,7 C 0,0 km/h (0 Bft) 98 %
08.05.2021 00:30 4,8 C 78 % 1018,1 hPa 0,0 l/m 0 min 0 min 0,000 mm 0,0 UV-I 0 W/m 1,3 C 4,8 C 0,0 km/h (0 Bft) 98 %
08.05.2021 00:28 4,8 C 78 % 1018,2 hPa 0,0 l/m 0 min 0 min 0,000 mm 0,0 UV-I 0 W/m 1,3 C 4,8 C 0,0 km/h (0 Bft) 98 %
08.05.2021 00:26 4,9 C 78 % 1018,2 hPa 0,0 l/m 0 min 0 min 0,000 mm 0,0 UV-I 0 W/m 1,4 C 4,9 C 0,0 km/h (0 Bft) 98 %
08.05.2021 00:24 4,9 C 77 % 1018,2 hPa 0,0 l/m 0 min 0 min 0,000 mm 0,0 UV-I 0 W/m 1,2 C 4,9 C 8,0 km/h (2 Bft) 98 %
08.05.2021 00:20 5,1 C 77 % 1018,2 hPa 0,0 l/m 0 min 0 min 0,000 mm 0,0 UV-I 0 W/m 1,4 C 5,1 C 0,0 km/h (0 Bft) 89 %
08.05.2021 00:18 5,1 C 77 % 1018,2 hPa 0,0 l/m 0 min 0 min 0,000 mm 0,0 UV-I 0 W/m 1,4 C 5,1 C 4,8 km/h (1 Bft) 96 %
08.05.2021 00:16 5,2 C 77 % 1018,2 hPa 0,0 l/m 0 min 0 min 0,000 mm 0,0 UV-I 0 W/m 1,5 C 5,2 C 0,0 km/h (0 Bft) 94 %
08.05.2021 00:14 5,2 C 77 % 1018,2 hPa 0,0 l/m 0 min 0 min 0,000 mm 0,0 UV-I 0 W/m 1,5 C 5,2 C 0,0 km/h (0 Bft) 93 %
08.05.2021 00:12 5,2 C 77 % 1018,2 hPa 0,0 l/m 0 min 0 min 0,000 mm 0,0 UV-I 0 W/m 1,5 C 5,2 C 0,0 km/h (0 Bft) 96 %
08.05.2021 00:10 5,2 C 77 % 1018,2 hPa 0,0 l/m 0 min 0 min 0,000 mm 0,0 UV-I 0 W/m 1,5 C 5,2 C 0,0 km/h (0 Bft) 96 %
08.05.2021 00:08 5,3 C 77 % 1018,2 hPa 0,0 l/m 0 min 0 min 0,000 mm 0,0 UV-I 0 W/m 1,6 C 5,3 C 0,0 km/h (0 Bft) 96 %
08.05.2021 00:06 5,3 C 77 % 1018,2 hPa 0,0 l/m 0 min 0 min 0,000 mm 0,0 UV-I 0 W/m 1,6 C 5,3 C 0,0 km/h (0 Bft) 96 %
08.05.2021 00:04 5,3 C 76 % 1018,2 hPa 0,0 l/m 0 min 0 min 0,000 mm 0,0 UV-I 0 W/m 1,4 C 5,3 C 0,0 km/h (0 Bft) 92 %
08.05.2021 00:02 5,4 C 76 % 1018,2 hPa 0,0 l/m 0 min 0 min 0,000 mm 0,0 UV-I 0 W/m 1,5 C 5,4 C 0,0 km/h (0 Bft) 95 %
08.05.2021 00:00 5,4 C 76 % 1018,2 hPa 0,0 l/m 0 min 0 min 0,000 mm 0,0 UV-I 0 W/m 1,5 C 5,4 C 0,0 km/h (0 Bft) 94 %
07.05.2021 23:58 5,5 C 76 % 1018,2 hPa 0,0 l/m 0 min 0 min 0,000 mm 0,0 UV-I 0 W/m 1,6 C 5,5 C 0,0 km/h (0 Bft) 91 %
07.05.2021 23:56 5,5 C 76 % 1018,2 hPa 0,0 l/m 0 min 0 min 0,000 mm 0,0 UV-I 0 W/m 1,6 C 5,5 C 0,0 km/h (0 Bft) 98 %
07.05.2021 23:54 5,5 C 75 % 1018,0 hPa 0,0 l/m 0 min 0 min 0,000 mm 0,0 UV-I 0 W/m 1,4 C 5,5 C 0,0 km/h (0 Bft) 98 %
07.05.2021 23:52 5,6 C 75 % 1018,0 hPa 0,0 l/m 0 min 0 min 0,000 mm 0,0 UV-I 0 W/m 1,5 C 5,6 C 0,0 km/h (0 Bft) 100 %
07.05.2021 23:50 5,6 C 75 % 1018,1 hPa 0,0 l/m 0 min 0 min 0,000 mm 0,0 UV-I 0 W/m 1,5 C 5,6 C 0,0 km/h (0 Bft) 100 %
07.05.2021 23:48 5,6 C 75 % 1018,0 hPa 0,0 l/m 0 min 0 min 0,000 mm 0,0 UV-I 0 W/m 1,5 C 5,6 C 0,0 km/h (0 Bft) 98 %
07.05.2021 23:46 5,6 C 75 % 1018,0 hPa 0,0 l/m 0 min 0 min 0,000 mm 0,0 UV-I 0 W/m 1,5 C 5,6 C 0,0 km/h (0 Bft) 100 %
07.05.2021 23:44 5,6 C 75 % 1018,0 hPa 0,0 l/m 0 min 0 min 0,000 mm 0,0 UV-I 0 W/m 1,5 C 5,6 C 0,0 km/h (0 Bft) 100 %
07.05.2021 23:42 5,6 C 75 % 1018,2 hPa 0,0 l/m 0 min 0 min 0,000 mm 0,0 UV-I 0 W/m 1,5 C 5,6 C 0,0 km/h (0 Bft) 98 %
07.05.2021 23:40 5,6 C 75 % 1018,2 hPa 0,0 l/m 0 min 0 min 0,000 mm 0,0 UV-I 0 W/m 1,5 C 5,6 C 0,0 km/h (0 Bft) 98 %
07.05.2021 23:38 5,7 C 75 % 1018,1 hPa 0,0 l/m 0 min 0 min 0,000 mm 0,0 UV-I 0 W/m 1,6 C 5,7 C 0,0 km/h (0 Bft) 100 %
07.05.2021 23:36 5,7 C 75 % 1018,0 hPa 0,0 l/m 0 min 0 min 0,000 mm 0,0 UV-I 0 W/m 1,6 C 5,7 C 0,0 km/h (0 Bft) 100 %
07.05.2021 23:34 5,7 C 75 % 1018,0 hPa 0,0 l/m 0 min 0 min 0,000 mm 0,0 UV-I 0 W/m 1,6 C 5,7 C 0,0 km/h (0 Bft) 100 %
07.05.2021 23:32 5,7 C 76 % 1018,0 hPa 0,0 l/m 0 min 0 min 0,000 mm 0,0 UV-I 0 W/m 1,8 C 5,7 C 0,0 km/h (0 Bft) 100 %
07.05.2021 23:30 5,7 C 76 % 1018,0 hPa 0,0 l/m 0 min 0 min 0,000 mm 0,0 UV-I 0 W/m 1,8 C 5,7 C 0,0 km/h (0 Bft) 100 %
07.05.2021 23:28 5,7 C 76 % 1018,1 hPa 0,0 l/m 0 min 0 min 0,000 mm 0,0 UV-I 0 W/m 1,8 C 5,7 C 0,0 km/h (0 Bft) 98 %
07.05.2021 23:26 5,7 C 76 % 1018,0 hPa 0,0 l/m 0 min 0 min 0,000 mm 0,0 UV-I 0 W/m 1,8 C 5,7 C 0,0 km/h (0 Bft) 98 %
07.05.2021 23:24 5,7 C 76 % 1018,1 hPa 0,0 l/m 0 min 0 min 0,000 mm 0,0 UV-I 0 W/m 1,8 C 5,7 C 0,0 km/h (0 Bft) 100 %
07.05.2021 23:22 5,7 C 76 % 1018,0 hPa 0,0 l/m 0 min 0 min 0,000 mm 0,0 UV-I 0 W/m 1,8 C 5,7 C 0,0 km/h (0 Bft) 100 %
07.05.2021 23:20 5,7 C 76 % 1018,0 hPa 0,0 l/m 0 min 0 min 0,000 mm 0,0 UV-I 0 W/m 1,8 C 5,7 C 0,0 km/h (0 Bft) 98 %
07.05.2021 23:18 5,7 C 76 % 1018,0 hPa 0,0 l/m 0 min 0 min 0,000 mm 0,0 UV-I 0 W/m 1,8 C 5,7 C 0,0 km/h (0 Bft) 100 %
07.05.2021 23:16 5,6 C 76 % 1018,0 hPa 0,0 l/m 0 min 0 min 0,000 mm 0,0 UV-I 0 W/m 1,7 C 5,6 C 0,0 km/h (0 Bft) 100 %
07.05.2021 23:14 5,6 C 76 % 1018,0 hPa 0,0 l/m 0 min 0 min 0,000 mm 0,0 UV-I 0 W/m 1,7 C 5,6 C 0,0 km/h (0 Bft) 98 %
07.05.2021 23:12 5,6 C 76 % 1017,9 hPa 0,0 l/m 0 min 0 min 0,000 mm 0,0 UV-I 0 W/m 1,7 C 5,6 C 0,0 km/h (0 Bft) 100 %
07.05.2021 23:10 5,6 C 76 % 1017,9 hPa 0,0 l/m 0 min 0 min 0,000 mm 0,0 UV-I 0 W/m 1,7 C 5,6 C 0,0 km/h (0 Bft) 100 %
07.05.2021 23:08 5,6 C 76 % 1017,9 hPa 0,0 l/m 0 min 0 min 0,000 mm 0,0 UV-I 0 W/m 1,7 C 5,6 C 0,0 km/h (0 Bft) 100 %
07.05.2021 23:06 5,6 C 76 % 1017,9 hPa 0,0 l/m 0 min 0 min 0,000 mm 0,0 UV-I 0 W/m 1,7 C 5,6 C 0,0 km/h (0 Bft) 98 %
07.05.2021 23:04 5,6 C 76 % 1017,9 hPa 0,0 l/m 0 min 0 min 0,000 mm 0,0 UV-I 0 W/m 1,7 C 5,6 C 0,0 km/h (0 Bft) 95 %
07.05.2021 23:02 5,6 C 76 % 1018,0 hPa 0,0 l/m 0 min 0 min 0,000 mm 0,0 UV-I 0 W/m 1,7 C 5,6 C 0,0 km/h (0 Bft) 98 %
07.05.2021 23:00 5,6 C 76 % 1018,0 hPa 0,0 l/m 0 min 0 min 0,000 mm 0,0 UV-I 0 W/m 1,7 C 5,6 C 0,0 km/h (0 Bft) 96 %
07.05.2021 22:58 5,6 C 76 % 1017,9 hPa 0,0 l/m 0 min 0 min 0,000 mm 0,0 UV-I 0 W/m 1,7 C 5,6 C 0,0 km/h (0 Bft) 98 %
07.05.2021 22:56 5,7 C 76 % 1017,9 hPa 0,0 l/m 0 min 0 min 0,000 mm 0,0 UV-I 0 W/m 1,8 C 5,7 C 0,0 km/h (0 Bft) 98 %
07.05.2021 22:54 5,7 C 76 % 1017,9 hPa 0,0 l/m 0 min 0 min 0,000 mm 0,0 UV-I 0 W/m 1,8 C 5,7 C 0,0 km/h (0 Bft) 97 %
07.05.2021 22:52 5,8 C 75 % 1017,8 hPa 0,0 l/m 0 min 0 min 0,000 mm 0,0 UV-I 0 W/m 1,7 C 5,8 C 0,0 km/h (0 Bft) 96 %
07.05.2021 22:50 5,8 C 75 % 1017,9 hPa 0,0 l/m 0 min 0 min 0,000 mm 0,0 UV-I 0 W/m 1,7 C 5,8 C 0,0 km/h (0 Bft) 94 %
07.05.2021 22:48 5,8 C 75 % 1017,8 hPa 0,0 l/m 0 min 0 min 0,000 mm 0,0 UV-I 0 W/m 1,7 C 5,8 C 0,0 km/h (0 Bft) 96 %
07.05.2021 22:46 5,9 C 75 % 1017,8 hPa 0,0 l/m 0 min 0 min 0,000 mm 0,0 UV-I 0 W/m 1,8 C 5,9 C 0,0 km/h (0 Bft) 91 %
07.05.2021 22:44 5,9 C 75 % 1017,8 hPa 0,0 l/m 0 min 0 min 0,000 mm 0,0 UV-I 0 W/m 1,8 C 5,9 C 0,0 km/h (0 Bft) 94 %
07.05.2021 22:42 6,0 C 75 % 1017,8 hPa 0,0 l/m 0 min 0 min 0,000 mm 0,0 UV-I 0 W/m 1,9 C 6,0 C 0,0 km/h (0 Bft) 94 %
07.05.2021 22:40 6,1 C 75 % 1017,7 hPa 0,0 l/m 0 min 0 min 0,000 mm 0,0 UV-I 0 W/m 2,0 C 6,1 C 0,0 km/h (0 Bft) 94 %
07.05.2021 22:38 6,2 C 74 % 1017,8 hPa 0,0 l/m 0 min 0 min 0,000 mm 0,0 UV-I 0 W/m 1,9 C 6,2 C 0,0 km/h (0 Bft) 91 %
07.05.2021 22:36 6,3 C 74 % 1017,8 hPa 0,0 l/m 0 min 0 min 0,000 mm 0,0 UV-I 0 W/m 2,0 C 6,3 C 0,0 km/h (0 Bft) 94 %
07.05.2021 22:34 6,3 C 74 % 1017,7 hPa 0,0 l/m 0 min 0 min 0,000 mm 0,0 UV-I 0 W/m 2,0 C 6,3 C 0,0 km/h (0 Bft) 93 %
07.05.2021 22:32 6,4 C 74 % 1017,7 hPa 0,0 l/m 0 min 0 min 0,000 mm 0,0 UV-I 0 W/m 2,1 C 6,4 C 0,0 km/h (0 Bft) 94 %
07.05.2021 22:30 6,5 C 74 % 1017,7 hPa 0,0 l/m 0 min 0 min 0,000 mm 0,0 UV-I 0 W/m 2,2 C 6,5 C 0,0 km/h (0 Bft) 94 %
07.05.2021 22:28 6,6 C 74 % 1017,7 hPa 0,0 l/m 0 min 0 min 0,000 mm 0,0 UV-I 0 W/m 2,3 C 6,6 C 0,0 km/h (0 Bft) 94 %
07.05.2021 22:26 6,7 C 73 % 1017,7 hPa 0,0 l/m 0 min 0 min 0,000 mm 0,0 UV-I 0 W/m 2,2 C 6,7 C 0,0 km/h (0 Bft) 94 %
07.05.2021 22:24 6,8 C 73 % 1017,7 hPa 0,0 l/m 0 min 0 min 0,000 mm 0,0 UV-I 0 W/m 2,3 C 6,8 C 0,0 km/h (0 Bft) 96 %
07.05.2021 22:22 6,9 C 73 % 1017,7 hPa 0,0 l/m 0 min 0 min 0,000 mm 0,0 UV-I 0 W/m 2,4 C 6,9 C 0,0 km/h (0 Bft) 97 %
07.05.2021 22:20 7,0 C 73 % 1017,7 hPa 0,0 l/m 0 min 0 min 0,000 mm 0,0 UV-I 0 W/m 2,5 C 7,0 C 0,0 km/h (0 Bft) 91 %
07.05.2021 22:18 7,1 C 72 % 1017,7 hPa 0,0 l/m 0 min 0 min 0,000 mm 0,0 UV-I 0 W/m 2,4 C 7,1 C 0,0 km/h (0 Bft) 96 %
07.05.2021 22:16 7,2 C 72 % 1017,7 hPa 0,0 l/m 0 min 0 min 0,000 mm 0,0 UV-I 0 W/m 2,5 C 7,2 C 0,0 km/h (0 Bft) 94 %
07.05.2021 22:14 7,3 C 72 % 1017,7 hPa 0,0 l/m 0 min 0 min 0,000 mm 0,0 UV-I 0 W/m 2,6 C 7,3 C 0,0 km/h (0 Bft) 91 %
07.05.2021 22:12 7,4 C 71 % 1017,8 hPa 0,0 l/m 0 min 0 min 0,000 mm 0,0 UV-I 0 W/m 2,5 C 7,4 C 0,0 km/h (0 Bft) 96 %
07.05.2021 22:10 7,5 C 71 % 1017,7 hPa 0,0 l/m 0 min 0 min 0,000 mm 0,0 UV-I 0 W/m 2,6 C 7,5 C 0,0 km/h (0 Bft) 96 %
07.05.2021 22:08 7,6 C 70 % 1017,7 hPa 0,0 l/m 0 min 0 min 0,000 mm 0,0 UV-I 0 W/m 2,5 C 7,6 C 0,0 km/h (0 Bft) 96 %
07.05.2021 22:06 7,7 C 70 % 1017,7 hPa 0,0 l/m 0 min 0 min 0,000 mm 0,0 UV-I 0 W/m 2,6 C 7,7 C 0,0 km/h (0 Bft) 96 %
07.05.2021 22:04 7,7 C 70 % 1017,7 hPa 0,0 l/m 0 min 0 min 0,000 mm 0,0 UV-I 0 W/m 2,6 C 7,7 C 0,0 km/h (0 Bft) 96 %
07.05.2021 22:02 7,8 C 69 % 1017,7 hPa 0,0 l/m 0 min 0 min 0,000 mm 0,0 UV-I 0 W/m 2,5 C 7,8 C 0,0 km/h (0 Bft) 96 %
07.05.2021 22:00 7,9 C 69 % 1017,7 hPa 0,0 l/m 0 min 0 min 0,000 mm 0,0 UV-I 0 W/m 2,6 C 7,9 C 0,0 km/h (0 Bft) 95 %
07.05.2021 21:58 8,1 C 69 % 1017,7 hPa 0,0 l/m 0 min 0 min 0,000 mm 0,0 UV-I 0 W/m 2,8 C 8,1 C 0,0 km/h (0 Bft) 96 %
07.05.2021 21:56 8,2 C 68 % 1017,7 hPa 0,0 l/m 0 min 0 min 0,000 mm 0,0 UV-I 0 W/m 2,7 C 8,2 C 0,0 km/h (0 Bft) 98 %
07.05.2021 21:54 8,3 C 68 % 1017,7 hPa 0,0 l/m 0 min 0 min 0,000 mm 0,0 UV-I 0 W/m 2,7 C 8,3 C 0,0 km/h (0 Bft) 98 %
07.05.2021 21:52 8,4 C 67 % 1017,6 hPa 0,0 l/m 0 min 0 min 0,000 mm 0,0 UV-I 0 W/m 2,6 C 8,4 C 0,0 km/h (0 Bft) 100 %
07.05.2021 21:50 8,5 C 66 % 1017,6 hPa 0,0 l/m 0 min 0 min 0,000 mm 0,0 UV-I 0 W/m 2,5 C 8,5 C 0,0 km/h (0 Bft) 98 %
07.05.2021 21:48 8,7 C 66 % 1017,6 hPa 0,0 l/m 0 min 0 min 0,000 mm 0,0 UV-I 0 W/m 2,7 C 8,7 C 0,0 km/h (0 Bft) 96 %
07.05.2021 21:46 8,8 C 65 % 1017,6 hPa 0,0 l/m 0 min 0 min 0,000 mm 0,0 UV-I 0 W/m 2,6 C 8,8 C 0,0 km/h (0 Bft) 96 %
07.05.2021 21:44 8,9 C 65 % 1017,6 hPa 0,0 l/m 0 min 0 min 0,000 mm 0,0 UV-I 0 W/m 2,7 C 8,9 C 0,0 km/h (0 Bft) 94 %
07.05.2021 21:42 9,0 C 64 % 1017,6 hPa 0,0 l/m 0 min 0 min 0,000 mm 0,0 UV-I 0 W/m 2,6 C 9,0 C 0,0 km/h (0 Bft) 98 %
07.05.2021 21:40 9,1 C 63 % 1017,6 hPa 0,0 l/m 0 min 0 min 0,000 mm 0,0 UV-I 0 W/m 2,4 C 9,1 C 0,0 km/h (0 Bft) 95 %
07.05.2021 21:38 9,2 C 63 % 1017,5 hPa 0,0 l/m 0 min 0 min 0,000 mm 0,0 UV-I 0 W/m 2,5 C 9,2 C 0,0 km/h (0 Bft) 96 %
07.05.2021 21:36 9,3 C 62 % 1017,5 hPa 0,0 l/m 0 min 0 min 0,000 mm 0,0 UV-I 0 W/m 2,4 C 9,3 C 0,0 km/h (0 Bft) 94 %
07.05.2021 21:34 9,3 C 61 % 1017,5 hPa 0,0 l/m 0 min 0 min 0,000 mm 0,0 UV-I 0 W/m 2,2 C 9,3 C 0,0 km/h (0 Bft) 96 %
07.05.2021 21:32 9,4 C 60 % 1017,5 hPa 0,0 l/m 0 min 0 min 0,000 mm 0,0 UV-I 0 W/m 2,0 C 9,4 C 0,0 km/h (0 Bft) 98 %
07.05.2021 21:30 9,4 C 60 % 1017,5 hPa 0,0 l/m 0 min 0 min 0,000 mm 0,0 UV-I 0 W/m 2,0 C 9,4 C 0,0 km/h (0 Bft) 98 %
07.05.2021 21:28 9,5 C 60 % 1017,4 hPa 0,0 l/m 0 min 0 min 0,000 mm 0,0 UV-I 0 W/m 2,1 C 9,5 C 0,0 km/h (0 Bft) 95 %
07.05.2021 21:26 9,6 C 60 % 1017,4 hPa 0,0 l/m 0 min 0 min 0,000 mm 0,0 UV-I 0 W/m 2,2 C 9,6 C 0,0 km/h (0 Bft) 96 %
07.05.2021 21:24 9,6 C 60 % 1017,4 hPa 0,0 l/m 0 min 0 min 0,000 mm 0,0 UV-I 0 W/m 2,2 C 9,6 C 0,0 km/h (0 Bft) 94 %
07.05.2021 21:22 9,6 C 60 % 1017,4 hPa 0,0 l/m 0 min 0 min 0,000 mm 0,0 UV-I 0 W/m 2,2 C 9,6 C 0,0 km/h (0 Bft) 94 %
07.05.2021 21:20 9,7 C 61 % 1017,3 hPa 0,0 l/m 0 min 0 min 0,000 mm 0,0 UV-I 0 W/m 2,5 C 9,7 C 0,0 km/h (0 Bft) 98 %
07.05.2021 21:18 9,7 C 61 % 1017,3 hPa 0,0 l/m 0 min 0 min 0,000 mm 0,0 UV-I 1 W/m 2,5 C 9,7 C 0,0 km/h (0 Bft) 98 %
07.05.2021 21:16 9,8 C 61 % 1017,4 hPa 0,0 l/m 0 min 0 min 0,000 mm 0,0 UV-I 2 W/m 2,6 C 9,8 C 0,0 km/h (0 Bft) 96 %
07.05.2021 21:14 9,8 C 61 % 1017,3 hPa 0,0 l/m 0 min 0 min 0,000 mm 0,0 UV-I 3 W/m 2,6 C 9,8 C 0,0 km/h (0 Bft) 96 %
07.05.2021 21:12 9,8 C 61 % 1017,3 hPa 0,0 l/m 0 min 0 min 0,000 mm 0,0 UV-I 4 W/m 2,6 C 9,8 C 0,0 km/h (0 Bft) 98 %
07.05.2021 21:10 9,9 C 61 % 1017,3 hPa 0,0 l/m 0 min 0 min 0,000 mm 0,0 UV-I 6 W/m 2,7 C 9,9 C 0,0 km/h (0 Bft) 98 %
07.05.2021 21:08 9,9 C 61 % 1017,3 hPa 0,0 l/m 0 min 0 min 0,000 mm 0,0 UV-I 7 W/m 2,7 C 9,9 C 0,0 km/h (0 Bft) 97 %
07.05.2021 21:06 10,0 C 61 % 1017,3 hPa 0,0 l/m 0 min 0 min 0,000 mm 0,0 UV-I 7 W/m 2,8 C 10,0 C 0,0 km/h (0 Bft) 96 %
07.05.2021 21:04 10,0 C 61 % 1017,3 hPa 0,0 l/m 0 min 0 min 0,000 mm 0,0 UV-I 9 W/m 2,8 C 10,0 C 0,0 km/h (0 Bft) 98 %
07.05.2021 21:02 10,1 C 60 % 1017,3 hPa 0,0 l/m 0 min 0 min 0,025 mm 0,0 UV-I 9 W/m 2,7 C 10,1 C 0,0 km/h (0 Bft) 96 %
07.05.2021 21:00 10,1 C 60 % 1017,3 hPa 0,0 l/m 0 min 0 min 0,000 mm 0,0 UV-I 11 W/m 2,7 C 10,1 C 0,0 km/h (0 Bft) 100 %
07.05.2021 20:58 10,2 C 60 % 1017,3 hPa 0,0 l/m 0 min 0 min 0,000 mm 0,0 UV-I 11 W/m 2,8 C 10,2 C 0,0 km/h (0 Bft) 100 %
07.05.2021 20:56 10,2 C 60 % 1017,3 hPa 0,0 l/m 0 min 0 min 0,000 mm 0,0 UV-I 13 W/m 2,8 C 10,2 C 1,6 km/h (1 Bft) 100 %
07.05.2021 20:54 10,3 C 60 % 1017,3 hPa 0,0 l/m 0 min 0 min 0,000 mm 0,0 UV-I 13 W/m 2,9 C 10,3 C 0,0 km/h (0 Bft) 100 %
07.05.2021 20:52 10,3 C 60 % 1017,3 hPa 0,0 l/m 0 min 0 min 0,000 mm 0,0 UV-I 14 W/m 2,9 C 10,3 C 0,0 km/h (0 Bft) 100 %
07.05.2021 20:50 10,4 C 60 % 1017,3 hPa 0,0 l/m 0 min 0 min 0,000 mm 0,0 UV-I 16 W/m 3,0 C 10,4 C 0,0 km/h (0 Bft) 98 %
07.05.2021 20:48 10,4 C 60 % 1017,3 hPa 0,0 l/m 0 min 0 min 0,000 mm 0,0 UV-I 16 W/m 3,0 C 10,4 C 3,2 km/h (1 Bft) 100 %
07.05.2021 20:46 10,5 C 60 % 1017,2 hPa 0,0 l/m 0 min 0 min 0,000 mm 0,0 UV-I 17 W/m 3,1 C 10,5 C 0,0 km/h (0 Bft) 100 %
07.05.2021 20:44 10,6 C 60 % 1017,2 hPa 0,0 l/m 0 min 0 min 0,000 mm 0,0 UV-I 19 W/m 3,2 C 10,6 C 1,6 km/h (1 Bft) 100 %
07.05.2021 20:42 10,6 C 60 % 1017,2 hPa 0,0 l/m 0 min 0 min 0,000 mm 0,0 UV-I 20 W/m 3,2 C 10,6 C 0,0 km/h (0 Bft) 100 %
07.05.2021 20:40 10,7 C 60 % 1017,1 hPa 0,0 l/m 0 min 0 min 0,000 mm 0,0 UV-I 21 W/m 3,3 C 10,7 C 0,0 km/h (0 Bft) 100 %
07.05.2021 20:38 10,8 C 60 % 1017,1 hPa 0,0 l/m 0 min 0 min 0,000 mm 0,0 UV-I 23 W/m 3,4 C 10,8 C 0,0 km/h (0 Bft) 98 %
07.05.2021 20:36 10,8 C 60 % 1017,0 hPa 0,0 l/m 0 min 0 min 0,000 mm 0,0 UV-I 24 W/m 3,4 C 10,8 C 4,8 km/h (1 Bft) 98 %
07.05.2021 20:34 10,8 C 60 % 1017,0 hPa 0,0 l/m 0 min 0 min 0,000 mm 0,0 UV-I 26 W/m 3,4 C 10,8 C 0,0 km/h (0 Bft) 94 %
07.05.2021 20:32 10,9 C 59 % 1017,0 hPa 0,0 l/m 0 min 0 min 0,000 mm 0,0 UV-I 29 W/m 3,2 C 10,9 C 0,0 km/h (0 Bft) 92 %
07.05.2021 20:30 10,9 C 59 % 1017,0 hPa 0,0 l/m 0 min 0 min 0,000 mm 0,0 UV-I 31 W/m 3,2 C 10,9 C 0,0 km/h (0 Bft) 100 %
07.05.2021 20:28 10,9 C 59 % 1017,0 hPa 0,0 l/m 0 min 0 min 0,000 mm 0,0 UV-I 34 W/m 3,2 C 10,9 C 3,2 km/h (1 Bft) 98 %
07.05.2021 20:26 10,9 C 59 % 1016,9 hPa 0,0 l/m 0 min 0 min 0,000 mm 0,0 UV-I 37 W/m 3,2 C 10,9 C 0,0 km/h (0 Bft) 98 %
07.05.2021 20:24 11,0 C 59 % 1016,9 hPa 0,0 l/m 0 min 0 min 0,000 mm 0,0 UV-I 40 W/m 3,3 C 11,0 C 0,0 km/h (0 Bft) 96 %
07.05.2021 20:22 11,0 C 59 % 1016,9 hPa 0,0 l/m 0 min 0 min 0,000 mm 0,4 UV-I 44 W/m 3,3 C 11,0 C 3,2 km/h (1 Bft) 98 %
07.05.2021 20:20 11,0 C 60 % 1016,9 hPa 0,0 l/m 0 min 0 min 0,000 mm 0,5 UV-I 48 W/m 3,5 C 11,0 C 1,6 km/h (1 Bft) 96 %
07.05.2021 20:18 11,0 C 60 % 1016,9 hPa 0,0 l/m 0 min 0 min 0,000 mm 0,5 UV-I 53 W/m 3,5 C 11,0 C 3,2 km/h (1 Bft) 98 %
07.05.2021 20:16 11,1 C 60 % 1016,9 hPa 0,0 l/m 0 min 0 min 0,000 mm 0,6 UV-I 56 W/m 3,6 C 11,1 C 0,0 km/h (0 Bft) 97 %
07.05.2021 20:14 11,1 C 60 % 1016,9 hPa 0,0 l/m 0 min 0 min 0,000 mm 0,6 UV-I 59 W/m 3,6 C 11,1 C 0,0 km/h (0 Bft) 96 %
07.05.2021 20:12 11,1 C 59 % 1016,9 hPa 0,0 l/m 0 min 0 min 0,000 mm 0,6 UV-I 63 W/m 3,4 C 11,1 C 0,0 km/h (0 Bft) 96 %
07.05.2021 20:10 11,1 C 59 % 1016,8 hPa 0,0 l/m 0 min 0 min 0,000 mm 0,6 UV-I 56 W/m 3,4 C 11,1 C 0,0 km/h (0 Bft) 98 %
07.05.2021 20:08 11,1 C 59 % 1016,9 hPa 0,0 l/m 0 min 0 min 0,000 mm 0,6 UV-I 61 W/m 3,4 C 11,1 C 1,6 km/h (1 Bft) 98 %
07.05.2021 20:06 11,1 C 59 % 1016,9 hPa 0,0 l/m 0 min 0 min 0,000 mm 0,6 UV-I 70 W/m 3,4 C 11,1 C 0,0 km/h (0 Bft) 98 %
07.05.2021 20:04 11,2 C 59 % 1016,9 hPa 0,0 l/m 0 min 0 min 0,000 mm 0,6 UV-I 65 W/m 3,5 C 11,2 C 0,0 km/h (0 Bft) 96 %
07.05.2021 20:02 11,2 C 59 % 1016,9 hPa 0,0 l/m 0 min 0 min 0,076 mm 0,6 UV-I 46 W/m 3,5 C 11,2 C 0,0 km/h (0 Bft) 95 %
07.05.2021 20:00 11,2 C 59 % 1016,9 hPa 0,0 l/m 0 min 0 min 0,000 mm 0,6 UV-I 46 W/m 3,5 C 11,2 C 4,8 km/h (1 Bft) 96 %
07.05.2021 19:58 11,3 C 59 % 1016,9 hPa 0,0 l/m 0 min 0 min 0,000 mm 0,6 UV-I 47 W/m 3,6 C 11,3 C 0,0 km/h (0 Bft) 97 %
07.05.2021 19:56 11,3 C 59 % 1016,9 hPa 0,0 l/m 0 min 0 min 0,000 mm 0,6 UV-I 48 W/m 3,6 C 11,3 C 1,6 km/h (1 Bft) 94 %
07.05.2021 19:54 11,3 C 59 % 1016,9 hPa 0,0 l/m 0 min 0 min 0,000 mm 0,6 UV-I 61 W/m 3,6 C 11,3 C 0,0 km/h (0 Bft) 94 %
07.05.2021 19:52 11,3 C 59 % 1016,9 hPa 0,0 l/m 0 min 0 min 0,000 mm 0,7 UV-I 87 W/m 3,6 C 11,3 C 6,4 km/h (2 Bft) 98 %
07.05.2021 19:50 11,3 C 59 % 1016,9 hPa 0,0 l/m 0 min 0 min 0,000 mm 0,7 UV-I 100 W/m 3,6 C 11,3 C 1,6 km/h (1 Bft) 98 %
07.05.2021 19:48 11,4 C 59 % 1016,9 hPa 0,0 l/m 0 min 0 min 0,000 mm 0,7 UV-I 99 W/m 3,7 C 11,4 C 4,8 km/h (1 Bft) 97 %
07.05.2021 19:46 11,4 C 59 % 1016,9 hPa 0,0 l/m 0 min 0 min 0,000 mm 0,7 UV-I 60 W/m 3,7 C 11,4 C 0,0 km/h (0 Bft) 98 %
07.05.2021 19:44 11,5 C 59 % 1016,8 hPa 0,0 l/m 0 min 0 min 0,000 mm 0,7 UV-I 61 W/m 3,8 C 11,5 C 0,0 km/h (0 Bft) 98 %
07.05.2021 19:42 11,6 C 58 % 1016,8 hPa 0,0 l/m 0 min 0 min 0,000 mm 0,7 UV-I 78 W/m 3,6 C 11,6 C 16,1 km/h (3 Bft) 98 %
07.05.2021 19:40 11,6 C 59 % 1016,9 hPa 0,0 l/m 2 min 0 min 0,000 mm 0,7 UV-I 150 W/m 3,9 C 11,6 C 1,6 km/h (1 Bft) 100 %
07.05.2021 19:38 11,6 C 59 % 1016,9 hPa 0,0 l/m 2 min 0 min 0,000 mm 0,7 UV-I 136 W/m 3,9 C 11,6 C 12,9 km/h (3 Bft) 98 %
07.05.2021 19:36 11,6 C 59 % 1016,9 hPa 0,0 l/m 2 min 0 min 0,000 mm 0,7 UV-I 147 W/m 3,9 C 11,6 C 3,2 km/h (1 Bft) 95 %
07.05.2021 19:34 11,6 C 60 % 1016,9 hPa 0,0 l/m 2 min 0 min 0,000 mm 0,7 UV-I 178 W/m 4,1 C 11,6 C 9,7 km/h (2 Bft) 98 %
07.05.2021 19:32 11,6 C 60 % 1016,9 hPa 0,0 l/m 0 min 0 min 0,000 mm 0,7 UV-I 137 W/m 4,1 C 11,6 C 0,0 km/h (0 Bft) 100 %
07.05.2021 19:30 11,6 C 60 % 1016,9 hPa 0,0 l/m 2 min 0 min 0,000 mm 0,8 UV-I 144 W/m 4,1 C 11,6 C 0,0 km/h (0 Bft) 98 %
07.05.2021 19:28 11,6 C 60 % 1016,8 hPa 0,0 l/m 0 min 0 min 0,000 mm 0,8 UV-I 109 W/m 4,1 C 11,6 C 0,0 km/h (0 Bft) 100 %
07.05.2021 19:26 11,7 C 59 % 1016,9 hPa 0,0 l/m 2 min 0 min 0,000 mm 0,8 UV-I 184 W/m 4,0 C 11,7 C 9,7 km/h (2 Bft) 100 %
07.05.2021 19:24 11,7 C 59 % 1016,9 hPa 0,0 l/m 2 min 0 min 0,000 mm 0,8 UV-I 158 W/m 4,0 C 11,7 C 12,9 km/h (3 Bft) 100 %
07.05.2021 19:22 11,7 C 59 % 1016,8 hPa 0,0 l/m 0 min 0 min 0,000 mm 0,8 UV-I 110 W/m 4,0 C 11,7 C 0,0 km/h (0 Bft) 100 %
07.05.2021 19:20 11,7 C 58 % 1016,8 hPa 0,0 l/m 0 min 0 min 0,000 mm 0,8 UV-I 103 W/m 3,7 C 11,7 C 16,1 km/h (3 Bft) 100 %
07.05.2021 19:18 11,8 C 58 % 1016,8 hPa 0,0 l/m 0 min 0 min 0,000 mm 0,8 UV-I 97 W/m 3,8 C 11,8 C 6,4 km/h (2 Bft) 100 %
07.05.2021 19:16 11,8 C 58 % 1016,9 hPa 0,0 l/m 0 min 0 min 0,000 mm 0,8 UV-I 94 W/m 3,8 C 11,8 C 8,0 km/h (2 Bft) 98 %
07.05.2021 19:14 11,8 C 58 % 1016,8 hPa 0,0 l/m 0 min 0 min 0,000 mm 0,8 UV-I 123 W/m 3,8 C 11,8 C 9,7 km/h (2 Bft) 98 %
07.05.2021 19:12 11,9 C 58 % 1016,9 hPa 0,0 l/m 0 min 0 min 0,000 mm 0,9 UV-I 128 W/m 3,9 C 11,9 C 9,7 km/h (2 Bft) 100 %
07.05.2021 19:10 11,9 C 58 % 1016,9 hPa 0,0 l/m 0 min 0 min 0,000 mm 0,9 UV-I 97 W/m 3,9 C 11,9 C 12,9 km/h (3 Bft) 100 %
07.05.2021 19:08 12,1 C 58 % 1016,8 hPa 0,0 l/m 0 min 0 min 0,000 mm 0,9 UV-I 102 W/m 4,1 C 12,1 C 4,8 km/h (1 Bft) 100 %
07.05.2021 19:06 12,1 C 58 % 1016,8 hPa 0,0 l/m 0 min 0 min 0,000 mm 0,9 UV-I 132 W/m 4,1 C 12,1 C 14,5 km/h (3 Bft) 100 %
07.05.2021 19:04 12,1 C 58 % 1016,8 hPa 0,0 l/m 2 min 0 min 0,000 mm 0,9 UV-I 218 W/m 4,1 C 12,1 C 0,0 km/h (0 Bft) 100 %
07.05.2021 19:02 12,1 C 58 % 1016,7 hPa 0,0 l/m 2 min 0 min 0,153 mm 0,9 UV-I 342 W/m 4,1 C 12,1 C 0,0 km/h (0 Bft) 98 %
07.05.2021 19:00 11,9 C 58 % 1016,7 hPa 0,0 l/m 2 min 0 min 0,000 mm 0,9 UV-I 350 W/m 3,9 C 11,9 C 6,4 km/h (2 Bft) 98 %
07.05.2021 18:58 11,9 C 59 % 1016,7 hPa 0,0 l/m 2 min 0 min 0,000 mm 0,9 UV-I 349 W/m 4,1 C 11,9 C 1,6 km/h (1 Bft) 100 %
07.05.2021 18:56 11,8 C 60 % 1016,7 hPa 0,0 l/m 2 min 0 min 0,000 mm 0,9 UV-I 349 W/m 4,3 C 11,8 C 6,4 km/h (2 Bft) 98 %
07.05.2021 18:54 11,8 C 60 % 1016,7 hPa 0,0 l/m 2 min 0 min 0,000 mm 0,9 UV-I 295 W/m 4,3 C 11,8 C 4,8 km/h (1 Bft) 98 %
07.05.2021 18:52 11,8 C 60 % 1016,7 hPa 0,0 l/m 0 min 0 min 0,000 mm 0,9 UV-I 149 W/m 4,3 C 11,8 C 1,6 km/h (1 Bft) 96 %
07.05.2021 18:50 11,9 C 60 % 1016,7 hPa 0,0 l/m 0 min 0 min 0,000 mm 0,9 UV-I 138 W/m 4,4 C 11,9 C 1,6 km/h (1 Bft) 100 %
07.05.2021 18:48 11,9 C 60 % 1016,8 hPa 0,0 l/m 0 min 0 min 0,000 mm 0,9 UV-I 129 W/m 4,4 C 11,9 C 3,2 km/h (1 Bft) 98 %
07.05.2021 18:46 11,9 C 60 % 1016,8 hPa 0,0 l/m 0 min 0 min 0,000 mm 0,9 UV-I 125 W/m 4,4 C 11,9 C 3,2 km/h (1 Bft) 98 %
07.05.2021 18:44 11,9 C 60 % 1016,8 hPa 0,0 l/m 0 min 0 min 0,000 mm 1,0 UV-I 131 W/m 4,4 C 11,9 C 6,4 km/h (2 Bft) 100 %
07.05.2021 18:42 11,9 C 59 % 1016,8 hPa 0,0 l/m 0 min 0 min 0,000 mm 1,0 UV-I 139 W/m 4,1 C 11,9 C 3,2 km/h (1 Bft) 96 %
07.05.2021 18:40 11,9 C 59 % 1016,8 hPa 0,0 l/m 0 min 0 min 0,000 mm 1,0 UV-I 146 W/m 4,1 C 11,9 C 8,0 km/h (2 Bft) 100 %
07.05.2021 18:38 12,0 C 59 % 1016,8 hPa 0,0 l/m 0 min 0 min 0,000 mm 1,0 UV-I 148 W/m 4,2 C 12,0 C 6,4 km/h (2 Bft) 97 %
07.05.2021 18:36 12,1 C 58 % 1016,8 hPa 0,0 l/m 0 min 0 min 0,000 mm 1,0 UV-I 146 W/m 4,1 C 12,1 C 4,8 km/h (1 Bft) 98 %
07.05.2021 18:34 12,1 C 58 % 1016,9 hPa 0,0 l/m 0 min 0 min 0,000 mm 1,0 UV-I 147 W/m 4,1 C 12,1 C 9,7 km/h (2 Bft) 98 %
07.05.2021 18:32 12,2 C 58 % 1016,9 hPa 0,0 l/m 0 min 0 min 0,000 mm 1,0 UV-I 138 W/m 4,2 C 12,2 C 1,6 km/h (1 Bft) 96 %
07.05.2021 18:30 12,3 C 58 % 1016,9 hPa 0,0 l/m 0 min 0 min 0,000 mm 1,1 UV-I 138 W/m 4,3 C 12,3 C 1,6 km/h (1 Bft) 96 %
07.05.2021 18:28 12,4 C 58 % 1016,8 hPa 0,0 l/m 0 min 0 min 0,000 mm 1,1 UV-I 158 W/m 4,4 C 12,4 C 14,5 km/h (3 Bft) 94 %
07.05.2021 18:26 12,4 C 58 % 1016,8 hPa 0,0 l/m 0 min 0 min 0,000 mm 1,1 UV-I 166 W/m 4,4 C 12,4 C 3,2 km/h (1 Bft) 96 %
07.05.2021 18:24 12,4 C 58 % 1016,8 hPa 0,0 l/m 2 min 0 min 0,000 mm 1,2 UV-I 348 W/m 4,4 C 12,4 C 11,3 km/h (2 Bft) 95 %
07.05.2021 18:20 12,4 C 59 % 1016,8 hPa 0,0 l/m 2 min 0 min 0,000 mm 1,3 UV-I 386 W/m 4,6 C 12,4 C 3,2 km/h (1 Bft) 96 %
07.05.2021 18:18 12,4 C 59 % 1016,8 hPa 0,0 l/m 2 min 0 min 0,000 mm 1,3 UV-I 417 W/m 4,6 C 12,4 C 12,9 km/h (3 Bft) 94 %
07.05.2021 18:16 12,4 C 59 % 1016,8 hPa 0,0 l/m 2 min 0 min 0,000 mm 1,4 UV-I 472 W/m 4,6 C 12,4 C 0,0 km/h (0 Bft) 96 %
07.05.2021 18:14 12,3 C 58 % 1016,7 hPa 0,0 l/m 2 min 0 min 0,000 mm 1,4 UV-I 491 W/m 4,3 C 12,3 C 4,8 km/h (1 Bft) 96 %
07.05.2021 18:12 12,3 C 59 % 1016,8 hPa 0,0 l/m 2 min 0 min 0,000 mm 1,3 UV-I 495 W/m 4,5 C 12,3 C 6,4 km/h (2 Bft) 96 %
07.05.2021 18:10 12,2 C 60 % 1016,8 hPa 0,0 l/m 2 min 0 min 0,000 mm 1,3 UV-I 493 W/m 4,7 C 12,2 C 14,5 km/h (3 Bft) 94 %
07.05.2021 18:08 12,1 C 60 % 1016,8 hPa 0,0 l/m 2 min 0 min 0,000 mm 1,3 UV-I 422 W/m 4,6 C 12,1 C 9,7 km/h (2 Bft) 96 %
07.05.2021 18:06 12,0 C 59 % 1016,8 hPa 0,0 l/m 0 min 0 min 0,000 mm 1,1 UV-I 171 W/m 4,2 C 12,0 C 8,0 km/h (2 Bft) 95 %
07.05.2021 18:04 11,9 C 59 % 1016,8 hPa 0,0 l/m 0 min 0 min 0,000 mm 1,1 UV-I 190 W/m 4,1 C 11,9 C 4,8 km/h (1 Bft) 98 %
07.05.2021 18:02 11,9 C 60 % 1016,8 hPa 0,0 l/m 0 min 0 min 0,203 mm 1,3 UV-I 266 W/m 4,4 C 11,9 C 3,2 km/h (1 Bft) 98 %
07.05.2021 18:00 11,8 C 59 % 1016,7 hPa 0,0 l/m 0 min 0 min 0,000 mm 1,3 UV-I 241 W/m 4,1 C 11,8 C 0,0 km/h (0 Bft) 100 %
07.05.2021 17:58 11,8 C 58 % 1016,8 hPa 0,0 l/m 0 min 0 min 0,000 mm 1,2 UV-I 167 W/m 3,8 C 11,8 C 0,0 km/h (0 Bft) 100 %
07.05.2021 17:56 11,9 C 59 % 1016,8 hPa 0,0 l/m 0 min 0 min 0,000 mm 1,3 UV-I 153 W/m 4,1 C 11,9 C 0,0 km/h (0 Bft) 100 %
07.05.2021 17:54 11,9 C 58 % 1016,8 hPa 0,0 l/m 0 min 0 min 0,000 mm 1,4 UV-I 159 W/m 3,9 C 11,9 C 4,8 km/h (1 Bft) 100 %
07.05.2021 17:52 11,9 C 58 % 1016,8 hPa 0,0 l/m 0 min 0 min 0,000 mm 1,5 UV-I 173 W/m 3,9 C 11,9 C 1,6 km/h (1 Bft) 100 %
07.05.2021 17:50 12,0 C 58 % 1016,7 hPa 0,0 l/m 2 min 0 min 0,000 mm 1,5 UV-I 359 W/m 4,0 C 12,0 C 0,0 km/h (0 Bft) 100 %
07.05.2021 17:48 12,1 C 58 % 1016,7 hPa 0,0 l/m 2 min 0 min 0,000 mm 1,7 UV-I 332 W/m 4,1 C 12,1 C 1,6 km/h (1 Bft) 98 %
07.05.2021 17:46 12,1 C 58 % 1016,7 hPa 0,0 l/m 0 min 0 min 0,000 mm 1,6 UV-I 254 W/m 4,1 C 12,1 C 3,2 km/h (1 Bft) 98 %
07.05.2021 17:44 12,2 C 58 % 1016,8 hPa 0,0 l/m 0 min 0 min 0,000 mm 1,5 UV-I 259 W/m 4,2 C 12,2 C 1,6 km/h (1 Bft) 100 %
07.05.2021 17:42 12,2 C 57 % 1016,7 hPa 0,0 l/m 0 min 0 min 0,000 mm 1,5 UV-I 262 W/m 3,9 C 12,2 C 3,2 km/h (1 Bft) 100 %
07.05.2021 17:40 12,3 C 57 % 1016,7 hPa 0,0 l/m 0 min 0 min 0,000 mm 1,5 UV-I 296 W/m 4,0 C 12,3 C 1,6 km/h (1 Bft) 98 %
07.05.2021 17:38 12,3 C 57 % 1016,8 hPa 0,0 l/m 0 min 0 min 0,000 mm 1,5 UV-I 249 W/m 4,0 C 12,3 C 0,0 km/h (0 Bft) 100 %
07.05.2021 17:36 12,4 C 57 % 1016,8 hPa 0,0 l/m 0 min 0 min 0,000 mm 1,5 UV-I 244 W/m 4,1 C 12,4 C 0,0 km/h (0 Bft) 100 %
07.05.2021 17:34 12,3 C 57 % 1016,8 hPa 0,0 l/m 0 min 0 min 0,000 mm 1,6 UV-I 248 W/m 4,0 C 12,3 C 11,3 km/h (2 Bft) 100 %
07.05.2021 17:32 12,3 C 57 % 1016,7 hPa 0,0 l/m 0 min 0 min 0,000 mm 1,8 UV-I 229 W/m 4,0 C 12,3 C 8,0 km/h (2 Bft) 98 %
07.05.2021 17:30 12,3 C 57 % 1016,7 hPa 0,0 l/m 0 min 0 min 0,000 mm 1,7 UV-I 223 W/m 4,0 C 12,3 C 8,0 km/h (2 Bft) 100 %
07.05.2021 17:28 12,3 C 59 % 1016,7 hPa 0,0 l/m 2 min 0 min 0,000 mm 1,9 UV-I 642 W/m 4,5 C 12,3 C 0,0 km/h (0 Bft) 98 %
07.05.2021 17:26 12,1 C 58 % 1016,7 hPa 0,0 l/m 2 min 0 min 0,000 mm 2,3 UV-I 515 W/m 4,1 C 12,1 C 4,8 km/h (1 Bft) 100 %
07.05.2021 17:24 12,1 C 57 % 1016,7 hPa 0,0 l/m 2 min 0 min 0,000 mm 2,2 UV-I 579 W/m 3,8 C 12,1 C 3,2 km/h (1 Bft) 100 %
07.05.2021 17:22 12,0 C 57 % 1016,7 hPa 0,0 l/m 0 min 0 min 0,000 mm 2,1 UV-I 226 W/m 3,8 C 12,0 C 4,8 km/h (1 Bft) 100 %
07.05.2021 17:20 12,0 C 58 % 1016,8 hPa 0,0 l/m 0 min 0 min 0,000 mm 1,9 UV-I 210 W/m 4,0 C 12,0 C 14,5 km/h (3 Bft) 100 %
07.05.2021 17:18 12,1 C 57 % 1016,8 hPa 0,0 l/m 0 min 0 min 0,000 mm 2,0 UV-I 312 W/m 3,8 C 12,1 C 1,6 km/h (1 Bft) 94 %
07.05.2021 17:16 12,2 C 58 % 1016,8 hPa 0,0 l/m 0 min 0 min 0,000 mm 2,3 UV-I 326 W/m 4,2 C 12,2 C 3,2 km/h (1 Bft) 100 %
07.05.2021 17:14 12,1 C 59 % 1016,8 hPa 0,0 l/m 0 min 0 min 0,000 mm 2,4 UV-I 326 W/m 4,3 C 12,1 C 11,3 km/h (2 Bft) 98 %
07.05.2021 17:12 12,0 C 58 % 1016,8 hPa 0,0 l/m 0 min 0 min 0,000 mm 2,2 UV-I 326 W/m 4,0 C 12,0 C 4,8 km/h (1 Bft) 100 %
07.05.2021 17:10 12,0 C 57 % 1016,8 hPa 0,0 l/m 2 min 0 min 0,000 mm 2,0 UV-I 361 W/m 3,8 C 12,0 C 11,3 km/h (2 Bft) 98 %
07.05.2021 17:08 12,0 C 58 % 1016,8 hPa 0,0 l/m 2 min 0 min 0,000 mm 2,2 UV-I 515 W/m 4,0 C 12,0 C 8,0 km/h (2 Bft) 100 %
07.05.2021 17:06 12,1 C 60 % 1016,8 hPa 0,0 l/m 2 min 0 min 0,000 mm 2,3 UV-I 599 W/m 4,6 C 12,1 C 0,0 km/h (0 Bft) 95 %
07.05.2021 17:04 12,0 C 60 % 1016,8 hPa 0,0 l/m 2 min 0 min 0,000 mm 2,4 UV-I 640 W/m 4,5 C 12,0 C 3,2 km/h (1 Bft) 98 %
07.05.2021 17:02 11,8 C 58 % 1016,8 hPa 0,0 l/m 0 min 0 min 0,203 mm 2,2 UV-I 269 W/m 3,8 C 11,8 C 6,4 km/h (2 Bft) 94 %
07.05.2021 17:00 11,8 C 57 % 1016,7 hPa 0,0 l/m 0 min 0 min 0,000 mm 2,0 UV-I 234 W/m 3,6 C 11,8 C 6,4 km/h (2 Bft) 96 %
07.05.2021 16:58 11,8 C 58 % 1016,8 hPa 0,0 l/m 0 min 0 min 0,000 mm 2,3 UV-I 249 W/m 3,8 C 11,8 C 6,4 km/h (2 Bft) 98 %
07.05.2021 16:56 11,8 C 59 % 1016,8 hPa 0,0 l/m 0 min 0 min 0,000 mm 2,4 UV-I 270 W/m 4,1 C 11,8 C 9,7 km/h (2 Bft) 98 %
07.05.2021 16:54 11,8 C 56 % 1016,8 hPa 0,0 l/m 0 min 0 min 0,000 mm 2,3 UV-I 256 W/m 3,3 C 11,8 C 6,4 km/h (2 Bft) 96 %
07.05.2021 16:52 11,9 C 58 % 1016,8 hPa 0,0 l/m 0 min 0 min 0,000 mm 2,0 UV-I 206 W/m 3,9 C 11,9 C 11,3 km/h (2 Bft) 94 %
07.05.2021 16:50 12,1 C 57 % 1016,9 hPa 0,0 l/m 0 min 0 min 0,000 mm 2,0 UV-I 202 W/m 3,8 C 12,1 C 11,3 km/h (2 Bft) 96 %
07.05.2021 16:48 12,2 C 56 % 1016,8 hPa 0,0 l/m 0 min 0 min 0,000 mm 2,0 UV-I 201 W/m 3,7 C 12,2 C 3,2 km/h (1 Bft) 98 %
07.05.2021 16:46 12,3 C 57 % 1016,8 hPa 0,0 l/m 0 min 0 min 0,000 mm 2,2 UV-I 278 W/m 4,0 C 12,3 C 6,4 km/h (2 Bft) 96 %
07.05.2021 16:44 12,3 C 59 % 1016,8 hPa 0,0 l/m 2 min 0 min 0,000 mm 2,6 UV-I 631 W/m 4,5 C 12,3 C 9,7 km/h (2 Bft) 98 %
07.05.2021 16:42 12,2 C 58 % 1016,7 hPa 0,0 l/m 2 min 0 min 0,000 mm 3,2 UV-I 679 W/m 4,2 C 12,2 C 16,1 km/h (3 Bft) 96 %
07.05.2021 16:40 12,3 C 58 % 1016,8 hPa 0,0 l/m 0 min 0 min 0,000 mm 3,0 UV-I 299 W/m 4,3 C 12,3 C 6,4 km/h (2 Bft) 91 %
07.05.2021 16:38 12,3 C 59 % 1016,7 hPa 0,0 l/m 0 min 0 min 0,000 mm 2,7 UV-I 261 W/m 4,5 C 12,3 C 14,5 km/h (3 Bft) 98 %
07.05.2021 16:36 12,2 C 56 % 1016,8 hPa 0,0 l/m 0 min 0 min 0,000 mm 2,7 UV-I 252 W/m 3,7 C 12,2 C 1,6 km/h (1 Bft) 98 %
07.05.2021 16:34 12,2 C 55 % 1016,7 hPa 0,0 l/m 0 min 0 min 0,000 mm 2,5 UV-I 384 W/m 3,4 C 12,2 C 12,9 km/h (3 Bft) 98 %
07.05.2021 16:32 12,2 C 56 % 1016,7 hPa 0,0 l/m 2 min 0 min 0,000 mm 3,3 UV-I 789 W/m 3,7 C 12,2 C 14,5 km/h (3 Bft) 98 %
07.05.2021 16:30 12,1 C 55 % 1016,8 hPa 0,0 l/m 2 min 0 min 0,000 mm 3,0 UV-I 419 W/m 3,3 C 12,1 C 22,5 km/h (4 Bft) 93 %
07.05.2021 16:28 12,1 C 56 % 1016,8 hPa 0,0 l/m 2 min 0 min 0,000 mm 3,0 UV-I 816 W/m 3,6 C 12,1 C 17,7 km/h (3 Bft) 98 %
07.05.2021 16:26 12,0 C 60 % 1016,7 hPa 0,0 l/m 2 min 0 min 0,000 mm 3,6 UV-I 813 W/m 4,5 C 12,0 C 19,3 km/h (3 Bft) 96 %
07.05.2021 16:24 11,8 C 59 % 1016,7 hPa 0,0 l/m 2 min 0 min 0,000 mm 3,5 UV-I 847 W/m 4,1 C 11,8 C 12,9 km/h (3 Bft) 94 %
07.05.2021 16:22 11,6 C 60 % 1016,7 hPa 0,0 l/m 2 min 0 min 0,000 mm 3,7 UV-I 846 W/m 4,1 C 11,6 C 6,4 km/h (2 Bft) 94 %
07.05.2021 16:20 11,3 C 60 % 1016,7 hPa 0,0 l/m 0 min 0 min 0,000 mm 3,4 UV-I 358 W/m 3,8 C 11,3 C 6,4 km/h (2 Bft) 96 %
07.05.2021 16:18 11,2 C 59 % 1016,7 hPa 0,0 l/m 0 min 0 min 0,000 mm 2,2 UV-I 239 W/m 3,5 C 11,2 C 8,0 km/h (2 Bft) 96 %
07.05.2021 16:16 11,2 C 60 % 1016,7 hPa 0,0 l/m 0 min 0 min 0,000 mm 2,1 UV-I 198 W/m 3,7 C 11,2 C 1,6 km/h (1 Bft) 96 %
07.05.2021 16:14 11,3 C 59 % 1016,8 hPa 0,0 l/m 0 min 0 min 0,000 mm 2,1 UV-I 195 W/m 3,6 C 11,3 C 6,4 km/h (2 Bft) 96 %
07.05.2021 16:12 11,4 C 59 % 1016,8 hPa 0,0 l/m 0 min 0 min 0,000 mm 2,2 UV-I 198 W/m 3,7 C 11,4 C 11,3 km/h (2 Bft) 94 %
07.05.2021 16:10 11,4 C 59 % 1016,8 hPa 0,0 l/m 0 min 0 min 0,000 mm 2,3 UV-I 217 W/m 3,7 C 11,4 C 16,1 km/h (3 Bft) 96 %
07.05.2021 16:08 11,4 C 59 % 1016,8 hPa 0,0 l/m 0 min 0 min 0,000 mm 2,5 UV-I 266 W/m 3,7 C 11,4 C 12,9 km/h (3 Bft) 96 %
07.05.2021 16:06 11,6 C 59 % 1016,8 hPa 0,0 l/m 0 min 0 min 0,000 mm 2,6 UV-I 305 W/m 3,9 C 9,4 C 22,5 km/h (4 Bft) 98 %
07.05.2021 16:04 11,7 C 59 % 1016,7 hPa 0,0 l/m 0 min 0 min 0,000 mm 2,5 UV-I 293 W/m 4,0 C 11,7 C 17,7 km/h (3 Bft) 96 %
07.05.2021 16:02 11,9 C 58 % 1016,7 hPa 0,0 l/m 2 min 0 min 0,279 mm 3,2 UV-I 750 W/m 3,9 C 11,9 C 8,0 km/h (2 Bft) 98 %
07.05.2021 16:00 12,1 C 59 % 1016,7 hPa 0,0 l/m 2 min 0 min 0,000 mm 2,9 UV-I 821 W/m 4,3 C 12,1 C 8,0 km/h (2 Bft) 98 %
07.05.2021 15:58 12,2 C 61 % 1016,7 hPa 0,0 l/m 2 min 0 min 0,000 mm 4,0 UV-I 822 W/m 4,9 C 12,2 C 8,0 km/h (2 Bft) 98 %
07.05.2021 15:56 12,0 C 59 % 1016,7 hPa 0,0 l/m 2 min 0 min 0,000 mm 4,1 UV-I 810 W/m 4,2 C 12,0 C 6,4 km/h (2 Bft) 96 %
07.05.2021 15:54 11,8 C 60 % 1016,8 hPa 0,0 l/m 2 min 0 min 0,000 mm 4,2 UV-I 816 W/m 4,3 C 11,8 C 11,3 km/h (2 Bft) 98 %
07.05.2021 15:52 11,8 C 58 % 1016,7 hPa 0,0 l/m 0 min 0 min 0,000 mm 3,7 UV-I 351 W/m 3,8 C 11,8 C 11,3 km/h (2 Bft) 98 %
07.05.2021 15:50 11,8 C 58 % 1016,7 hPa 0,0 l/m 0 min 0 min 0,000 mm 3,4 UV-I 177 W/m 3,8 C 11,8 C 17,7 km/h (3 Bft) 96 %
07.05.2021 15:48 12,1 C 58 % 1016,6 hPa 0,0 l/m 0 min 0 min 0,000 mm 2,7 UV-I 252 W/m 4,1 C 12,1 C 8,0 km/h (2 Bft) 97 %
07.05.2021 15:46 12,1 C 60 % 1016,6 hPa 0,0 l/m 2 min 0 min 0,000 mm 4,0 UV-I 827 W/m 4,6 C 12,1 C 19,3 km/h (3 Bft) 97 %
07.05.2021 15:44 11,9 C 62 % 1016,7 hPa 0,0 l/m 2 min 0 min 0,000 mm 4,5 UV-I 843 W/m 4,9 C 11,9 C 17,7 km/h (3 Bft) 97 %
07.05.2021 15:42 11,7 C 63 % 1016,6 hPa 0,0 l/m 2 min 0 min 0,000 mm 4,6 UV-I 863 W/m 4,9 C 11,7 C 14,5 km/h (3 Bft) 97 %
07.05.2021 15:40 11,4 C 60 % 1016,6 hPa 0,0 l/m 2 min 0 min 0,000 mm 4,7 UV-I 884 W/m 3,9 C 11,4 C 1,6 km/h (1 Bft) 94 %
07.05.2021 15:38 11,3 C 63 % 1016,5 hPa 0,0 l/m 2 min 0 min 0,000 mm 4,7 UV-I 888 W/m 4,5 C 11,3 C 11,3 km/h (2 Bft) 97 %
07.05.2021 15:36 11,1 C 62 % 1016,5 hPa 0,0 l/m 2 min 0 min 0,000 mm 4,6 UV-I 870 W/m 4,1 C 11,1 C 17,7 km/h (3 Bft) 96 %
07.05.2021 15:34 10,7 C 62 % 1016,5 hPa 0,0 l/m 2 min 0 min 0,000 mm 4,6 UV-I 857 W/m 3,7 C 10,7 C 27,4 km/h (4 Bft) 96 %
07.05.2021 15:32 10,5 C 64 % 1016,5 hPa 0,0 l/m 2 min 0 min 0,000 mm 4,4 UV-I 600 W/m 4,0 C 10,5 C 16,1 km/h (3 Bft) 96 %
07.05.2021 15:30 10,4 C 65 % 1016,5 hPa 0,0 l/m 0 min 0 min 0,000 mm 3,3 UV-I 306 W/m 4,1 C 10,4 C 14,5 km/h (3 Bft) 97 %
07.05.2021 15:28 10,4 C 65 % 1016,5 hPa 0,0 l/m 0 min 0 min 0,000 mm 2,6 UV-I 281 W/m 4,1 C 10,4 C 14,5 km/h (3 Bft) 96 %
07.05.2021 15:26 10,3 C 65 % 1016,5 hPa 0,0 l/m 0 min 0 min 0,000 mm 3,8 UV-I 255 W/m 4,0 C 10,3 C 1,6 km/h (1 Bft) 96 %
07.05.2021 15:24 10,3 C 65 % 1016,4 hPa 0,0 l/m 0 min 0 min 0,000 mm 2,3 UV-I 251 W/m 4,0 C 10,3 C 6,4 km/h (2 Bft) 94 %
07.05.2021 15:22 10,4 C 66 % 1016,5 hPa 0,0 l/m 0 min 0 min 0,000 mm 2,4 UV-I 331 W/m 4,3 C 10,4 C 12,9 km/h (3 Bft) 95 %
07.05.2021 15:20 10,4 C 66 % 1016,5 hPa 0,0 l/m 0 min 0 min 0,000 mm 2,6 UV-I 277 W/m 4,3 C 10,4 C 3,2 km/h (1 Bft) 96 %
07.05.2021 15:18 10,4 C 65 % 1016,5 hPa 0,0 l/m 0 min 0 min 0,000 mm 2,5 UV-I 272 W/m 4,1 C 10,4 C 3,2 km/h (1 Bft) 96 %
07.05.2021 15:16 10,5 C 64 % 1016,5 hPa 0,0 l/m 0 min 0 min 0,000 mm 2,2 UV-I 210 W/m 4,0 C 10,5 C 9,7 km/h (2 Bft) 96 %
07.05.2021 15:14 10,6 C 64 % 1016,5 hPa 0,0 l/m 0 min 0 min 0,000 mm 2,0 UV-I 195 W/m 4,1 C 10,6 C 4,8 km/h (1 Bft) 97 %
07.05.2021 15:12 10,7 C 64 % 1016,4 hPa 0,0 l/m 0 min 0 min 0,000 mm 2,1 UV-I 181 W/m 4,2 C 10,7 C 3,2 km/h (1 Bft) 98 %
07.05.2021 15:10 10,7 C 64 % 1016,4 hPa 0,0 l/m 0 min 0 min 0,000 mm 2,4 UV-I 175 W/m 4,2 C 10,7 C 8,0 km/h (2 Bft) 98 %
07.05.2021 15:08 10,8 C 65 % 1016,4 hPa 0,0 l/m 2 min 0 min 0,000 mm 3,0 UV-I 571 W/m 4,5 C 10,8 C 3,2 km/h (1 Bft) 94 %
07.05.2021 15:06 10,8 C 67 % 1016,4 hPa 0,0 l/m 2 min 0 min 0,000 mm 4,5 UV-I 764 W/m 4,9 C 10,8 C 11,3 km/h (2 Bft) 93 %
07.05.2021 15:04 10,6 C 67 % 1016,3 hPa 0,0 l/m 0 min 0 min 0,000 mm 4,3 UV-I 278 W/m 4,7 C 10,6 C 6,4 km/h (2 Bft) 97 %
07.05.2021 15:02 10,4 C 68 % 1016,4 hPa 0,0 l/m 0 min 0 min 0,229 mm 4,6 UV-I 278 W/m 4,8 C 10,4 C 6,4 km/h (2 Bft) 98 %
07.05.2021 15:00 10,3 C 69 % 1016,3 hPa 0,0 l/m 0 min 0 min 0,000 mm 4,2 UV-I 278 W/m 4,9 C 10,3 C 14,5 km/h (3 Bft) 98 %
07.05.2021 14:58 10,2 C 67 % 1016,3 hPa 0,0 l/m 0 min 0 min 0,000 mm 2,8 UV-I 253 W/m 4,4 C 10,2 C 6,4 km/h (2 Bft) 94 %
07.05.2021 14:56 10,2 C 67 % 1016,3 hPa 0,0 l/m 2 min 0 min 0,000 mm 3,5 UV-I 938 W/m 4,4 C 10,2 C 9,7 km/h (2 Bft) 98 %
07.05.2021 14:54 10,1 C 67 % 1016,2 hPa 0,0 l/m 0 min 0 min 0,000 mm 4,8 UV-I 459 W/m 4,3 C 10,1 C 8,0 km/h (2 Bft) 96 %
07.05.2021 14:52 10,0 C 67 % 1016,2 hPa 0,0 l/m 0 min 0 min 0,000 mm 3,1 UV-I 227 W/m 4,2 C 10,0 C 17,7 km/h (3 Bft) 96 %
07.05.2021 14:50 10,1 C 67 % 1016,2 hPa 0,0 l/m 0 min 0 min 0,000 mm 2,8 UV-I 232 W/m 4,3 C 10,1 C 9,7 km/h (2 Bft) 96 %
07.05.2021 14:48 10,2 C 66 % 1016,2 hPa 0,0 l/m 0 min 0 min 0,000 mm 2,7 UV-I 252 W/m 4,1 C 10,2 C 9,7 km/h (2 Bft) 94 %
07.05.2021 14:46 10,3 C 65 % 1016,1 hPa 0,0 l/m 0 min 0 min 0,000 mm 2,3 UV-I 257 W/m 4,0 C 10,3 C 16,1 km/h (3 Bft) 96 %
07.05.2021 14:44 10,3 C 66 % 1016,1 hPa 0,0 l/m 0 min 0 min 0,000 mm 2,0 UV-I 215 W/m 4,2 C 8,3 C 22,5 km/h (4 Bft) 96 %
07.05.2021 14:42 10,4 C 66 % 1016,1 hPa 0,0 l/m 0 min 0 min 0,000 mm 2,0 UV-I 212 W/m 4,3 C 10,4 C 12,9 km/h (3 Bft) 91 %
07.05.2021 14:40 10,5 C 65 % 1016,1 hPa 0,0 l/m 0 min 0 min 0,000 mm 2,3 UV-I 235 W/m 4,2 C 10,5 C 14,5 km/h (3 Bft) 96 %
07.05.2021 14:38 10,6 C 65 % 1016,1 hPa 0,0 l/m 0 min 0 min 0,000 mm 2,3 UV-I 226 W/m 4,3 C 8,1 C 20,9 km/h (4 Bft) 96 %
07.05.2021 14:36 10,7 C 65 % 1016,1 hPa 0,0 l/m 0 min 0 min 0,000 mm 2,4 UV-I 229 W/m 4,4 C 9,7 C 19,3 km/h (3 Bft) 94 %
07.05.2021 14:34 10,7 C 66 % 1016,1 hPa 0,0 l/m 0 min 0 min 0,000 mm 2,8 UV-I 269 W/m 4,6 C 10,7 C 14,5 km/h (3 Bft) 94 %
07.05.2021 14:32 10,7 C 66 % 1016,0 hPa 0,0 l/m 0 min 0 min 0,000 mm 4,3 UV-I 280 W/m 4,6 C 8,3 C 19,3 km/h (3 Bft) 93 %
07.05.2021 14:30 10,7 C 68 % 1016,0 hPa 0,0 l/m 0 min 0 min 0,000 mm 4,4 UV-I 280 W/m 5,0 C 10,0 C 14,5 km/h (3 Bft) 98 %
07.05.2021 14:28 10,6 C 65 % 1016,0 hPa 0,0 l/m 0 min 0 min 0,000 mm 4,3 UV-I 280 W/m 4,3 C 9,5 C 14,5 km/h (3 Bft) 91 %
07.05.2021 14:26 10,7 C 65 % 1016,0 hPa 0,0 l/m 0 min 0 min 0,000 mm 2,7 UV-I 264 W/m 4,4 C 7,9 C 17,7 km/h (3 Bft) 91 %
07.05.2021 14:24 10,8 C 65 % 1015,9 hPa 0,0 l/m 0 min 0 min 0,000 mm 2,6 UV-I 247 W/m 4,5 C 7,7 C 17,7 km/h (3 Bft) 98 %
07.05.2021 14:22 10,9 C 66 % 1015,9 hPa 0,0 l/m 0 min 0 min 0,000 mm 2,7 UV-I 252 W/m 4,8 C 9,4 C 16,1 km/h (3 Bft) 94 %
07.05.2021 14:20 11,0 C 66 % 1015,9 hPa 0,0 l/m 0 min 0 min 0,000 mm 2,7 UV-I 256 W/m 4,9 C 11,0 C 17,7 km/h (3 Bft) 96 %
07.05.2021 14:18 11,1 C 67 % 1015,9 hPa 0,0 l/m 0 min 0 min 0,000 mm 2,5 UV-I 239 W/m 5,2 C 10,3 C 17,7 km/h (3 Bft) 98 %
07.05.2021 14:16 11,1 C 67 % 1015,9 hPa 0,0 l/m 0 min 0 min 0,000 mm 2,9 UV-I 404 W/m 5,2 C 9,0 C 17,7 km/h (3 Bft) 98 %
07.05.2021 14:14 11,1 C 68 % 1015,8 hPa 0,0 l/m 2 min 0 min 0,000 mm 4,8 UV-I 663 W/m 5,4 C 8,5 C 17,7 km/h (3 Bft) 96 %
07.05.2021 14:12 10,9 C 68 % 1015,9 hPa 0,0 l/m 2 min 0 min 0,000 mm 5,6 UV-I 1053 W/m 5,2 C 9,5 C 16,1 km/h (3 Bft) 98 %
07.05.2021 14:10 10,7 C 67 % 1015,9 hPa 0,0 l/m 0 min 0 min 0,000 mm 5,4 UV-I 461 W/m 4,8 C 8,8 C 14,5 km/h (3 Bft) 94 %
07.05.2021 14:08 10,7 C 67 % 1015,9 hPa 0,0 l/m 2 min 0 min 0,000 mm 4,3 UV-I 861 W/m 4,8 C 10,4 C 20,9 km/h (4 Bft) 98 %
07.05.2021 14:06 10,7 C 65 % 1015,9 hPa 0,0 l/m 2 min 0 min 0,000 mm 3,9 UV-I 540 W/m 4,4 C 10,5 C 14,5 km/h (3 Bft) 98 %
07.05.2021 14:04 10,8 C 66 % 1015,8 hPa 0,0 l/m 0 min 0 min 0,000 mm 3,1 UV-I 357 W/m 4,7 C 10,0 C 12,9 km/h (3 Bft) 98 %
07.05.2021 14:02 10,8 C 66 % 1015,8 hPa 0,0 l/m 0 min 0 min 0,330 mm 3,1 UV-I 338 W/m 4,7 C 10,3 C 12,9 km/h (3 Bft) 96 %
07.05.2021 14:00 10,8 C 68 % 1015,8 hPa 0,0 l/m 2 min 0 min 0,000 mm 4,4 UV-I 912 W/m 5,1 C 8,4 C 19,3 km/h (3 Bft) 98 %
07.05.2021 13:58 10,8 C 68 % 1015,7 hPa 0,0 l/m 2 min 0 min 0,000 mm 4,8 UV-I 1048 W/m 5,1 C 8,6 C 16,1 km/h (3 Bft) 96 %
07.05.2021 13:56 10,7 C 69 % 1015,8 hPa 0,0 l/m 2 min 0 min 0,000 mm 5,0 UV-I 1060 W/m 5,2 C 9,9 C 17,7 km/h (3 Bft) 98 %
07.05.2021 13:54 10,5 C 68 % 1015,8 hPa 0,0 l/m 2 min 0 min 0,000 mm 4,8 UV-I 1111 W/m 4,8 C 10,5 C 16,1 km/h (3 Bft) 96 %
07.05.2021 13:52 10,3 C 69 % 1015,8 hPa 0,0 l/m 2 min 0 min 0,000 mm 4,3 UV-I 1111 W/m 4,9 C 10,3 C 14,5 km/h (3 Bft) 98 %
07.05.2021 13:50 10,2 C 69 % 1015,7 hPa 0,0 l/m 2 min 0 min 0,000 mm 4,3 UV-I 1118 W/m 4,8 C 8,4 C 17,7 km/h (3 Bft) 100 %
07.05.2021 13:48 9,9 C 70 % 1015,7 hPa 0,0 l/m 2 min 0 min 0,000 mm 5,4 UV-I 821 W/m 4,7 C 6,6 C 20,9 km/h (4 Bft) 100 %
07.05.2021 13:46 9,8 C 69 % 1015,8 hPa 0,0 l/m 0 min 0 min 0,000 mm 3,3 UV-I 319 W/m 4,4 C 9,8 C 19,3 km/h (3 Bft) 100 %
07.05.2021 13:44 9,8 C 70 % 1015,8 hPa 0,0 l/m 2 min 0 min 0,000 mm 4,1 UV-I 753 W/m 4,6 C 8,0 C 16,1 km/h (3 Bft) 100 %
07.05.2021 13:42 9,6 C 71 % 1015,7 hPa 0,0 l/m 2 min 0 min 0,000 mm 5,5 UV-I 624 W/m 4,6 C 7,3 C 17,7 km/h (3 Bft) 98 %
07.05.2021 13:40 9,4 C 71 % 1015,7 hPa 0,0 l/m 2 min 0 min 0,000 mm 5,4 UV-I 970 W/m 4,4 C 7,6 C 16,1 km/h (3 Bft) 98 %
07.05.2021 13:38 9,4 C 71 % 1015,8 hPa 0,0 l/m 2 min 0 min 0,000 mm 5,7 UV-I 754 W/m 4,4 C 9,1 C 14,5 km/h (3 Bft) 100 %
07.05.2021 13:36 9,4 C 70 % 1015,8 hPa 0,0 l/m 0 min 0 min 0,000 mm 3,1 UV-I 196 W/m 4,2 C 7,1 C 19,3 km/h (3 Bft) 96 %
07.05.2021 13:34 9,6 C 70 % 1015,8 hPa 0,0 l/m 0 min 0 min 0,000 mm 2,8 UV-I 265 W/m 4,4 C 7,3 C 17,7 km/h (3 Bft) 100 %
07.05.2021 13:32 9,7 C 71 % 1015,7 hPa 0,0 l/m 0 min 0 min 0,000 mm 2,7 UV-I 289 W/m 4,7 C 6,6 C 17,7 km/h (3 Bft) 100 %
07.05.2021 13:30 9,7 C 72 % 1015,7 hPa 0,0 l/m 0 min 0 min 0,000 mm 2,5 UV-I 283 W/m 4,9 C 8,3 C 17,7 km/h (3 Bft) 100 %
07.05.2021 13:28 9,8 C 72 % 1015,7 hPa 0,0 l/m 0 min 0 min 0,000 mm 2,6 UV-I 297 W/m 5,0 C 9,6 C 11,3 km/h (2 Bft) 100 %
07.05.2021 13:26 9,8 C 72 % 1015,6 hPa 0,0 l/m 2 min 0 min 0,000 mm 4,1 UV-I 840 W/m 5,0 C 9,8 C 16,1 km/h (3 Bft) 98 %
07.05.2021 13:24 9,8 C 72 % 1015,7 hPa 0,0 l/m 2 min 0 min 0,000 mm 4,0 UV-I 633 W/m 5,0 C 6,8 C 20,9 km/h (4 Bft) 100 %
07.05.2021 13:20 9,8 C 73 % 1015,6 hPa 0,0 l/m 0 min 0 min 0,000 mm 3,0 UV-I 472 W/m 5,2 C 8,2 C 14,5 km/h (3 Bft) 98 %
07.05.2021 13:18 9,7 C 73 % 1015,6 hPa 0,0 l/m 2 min 0 min 0,000 mm 5,4 UV-I 1092 W/m 5,1 C 6,4 C 20,9 km/h (4 Bft) 98 %
07.05.2021 13:16 9,6 C 75 % 1015,6 hPa 0,0 l/m 2 min 0 min 0,000 mm 5,7 UV-I 1100 W/m 5,4 C 6,4 C 22,5 km/h (4 Bft) 100 %
07.05.2021 13:14 9,3 C 74 % 1015,5 hPa 0,0 l/m 2 min 0 min 0,000 mm 4,9 UV-I 1129 W/m 4,9 C 8,3 C 16,1 km/h (3 Bft) 100 %
07.05.2021 13:12 9,2 C 73 % 1015,5 hPa 0,0 l/m 0 min 0 min 0,000 mm 4,8 UV-I 470 W/m 4,6 C 5,0 C 19,3 km/h (3 Bft) 100 %
07.05.2021 13:10 9,3 C 74 % 1015,5 hPa 0,0 l/m 0 min 0 min 0,000 mm 3,4 UV-I 307 W/m 4,9 C 6,5 C 24,1 km/h (4 Bft) 98 %
07.05.2021 13:08 9,4 C 74 % 1015,5 hPa 0,0 l/m 0 min 0 min 0,000 mm 3,2 UV-I 293 W/m 5,0 C 5,5 C 20,9 km/h (4 Bft) 98 %
07.05.2021 13:06 9,4 C 75 % 1015,4 hPa 0,0 l/m 2 min 0 min 0,000 mm 3,5 UV-I 569 W/m 5,2 C 6,8 C 19,3 km/h (3 Bft) 92 %
07.05.2021 13:04 9,2 C 74 % 1015,4 hPa 0,0 l/m 2 min 0 min 0,000 mm 4,8 UV-I 900 W/m 4,8 C 6,7 C 16,1 km/h (3 Bft) 98 %
07.05.2021 13:02 9,1 C 75 % 1015,4 hPa 0,0 l/m 2 min 0 min 0,280 mm 5,5 UV-I 964 W/m 4,9 C 5,1 C 24,1 km/h (4 Bft) 96 %
07.05.2021 13:00 9,0 C 76 % 1015,3 hPa 0,0 l/m 2 min 0 min 0,000 mm 5,2 UV-I 656 W/m 5,0 C 5,6 C 19,3 km/h (3 Bft) 98 %
07.05.2021 12:58 9,0 C 77 % 1015,3 hPa 0,0 l/m 0 min 0 min 0,000 mm 4,2 UV-I 274 W/m 5,2 C 4,8 C 20,9 km/h (4 Bft) 98 %
07.05.2021 12:56 8,9 C 77 % 1015,4 hPa 0,0 l/m 2 min 0 min 0,000 mm 3,0 UV-I 518 W/m 5,1 C 6,3 C 19,3 km/h (3 Bft) 98 %
07.05.2021 12:54 9,0 C 79 % 1015,2 hPa 0,0 l/m 2 min 0 min 0,000 mm 4,2 UV-I 1088 W/m 5,6 C 5,4 C 19,3 km/h (3 Bft) 94 %
07.05.2021 12:52 8,9 C 79 % 1015,2 hPa 0,0 l/m 2 min 0 min 0,000 mm 4,5 UV-I 1088 W/m 5,5 C 4,4 C 20,9 km/h (4 Bft) 96 %
07.05.2021 12:50 8,7 C 81 % 1015,2 hPa 0,0 l/m 2 min 0 min 0,000 mm 5,6 UV-I 1033 W/m 5,6 C 6,2 C 17,7 km/h (3 Bft) 96 %
07.05.2021 12:48 8,4 C 80 % 1015,2 hPa 0,0 l/m 2 min 0 min 0,000 mm 5,5 UV-I 942 W/m 5,2 C 4,5 C 22,5 km/h (4 Bft) 96 %
07.05.2021 12:46 8,2 C 81 % 1015,2 hPa 0,0 l/m 2 min 0 min 0,000 mm 5,5 UV-I 898 W/m 5,1 C 3,3 C 20,9 km/h (4 Bft) 93 %
07.05.2021 12:44 8,2 C 82 % 1015,2 hPa 0,0 l/m 2 min 0 min 0,000 mm 5,5 UV-I 894 W/m 5,3 C 2,7 C 27,4 km/h (4 Bft) 91 %
07.05.2021 12:42 8,1 C 82 % 1015,1 hPa 0,0 l/m 0 min 0 min 0,000 mm 4,5 UV-I 315 W/m 5,2 C 4,5 C 25,7 km/h (4 Bft) 96 %
07.05.2021 12:40 8,1 C 81 % 1015,2 hPa 0,0 l/m 0 min 0 min 0,000 mm 3,7 UV-I 270 W/m 5,0 C 3,4 C 22,5 km/h (4 Bft) 98 %
07.05.2021 12:38 8,3 C 82 % 1015,1 hPa 0,0 l/m 0 min 0 min 0,000 mm 2,4 UV-I 239 W/m 5,4 C 2,8 C 27,4 km/h (4 Bft) 96 %
07.05.2021 12:36 8,3 C 83 % 1015,1 hPa 0,0 l/m 0 min 0 min 0,000 mm 2,3 UV-I 257 W/m 5,6 C 2,8 C 22,5 km/h (4 Bft) 94 %
07.05.2021 12:34 8,4 C 84 % 1015,0 hPa 0,0 l/m 2 min 0 min 0,000 mm 3,1 UV-I 540 W/m 5,9 C 3,9 C 24,1 km/h (4 Bft) 98 %
07.05.2021 12:32 8,3 C 86 % 1015,0 hPa 0,0 l/m 2 min 0 min 0,000 mm 4,7 UV-I 1092 W/m 6,1 C 4,5 C 20,9 km/h (4 Bft) 94 %
07.05.2021 12:30 8,0 C 86 % 1015,0 hPa 0,0 l/m 2 min 0 min 0,000 mm 5,6 UV-I 1069 W/m 5,8 C 5,6 C 14,5 km/h (3 Bft) 98 %
07.05.2021 12:28 7,6 C 85 % 1015,0 hPa 0,0 l/m 2 min 0 min 0,000 mm 5,0 UV-I 714 W/m 5,2 C 4,9 C 16,1 km/h (3 Bft) 98 %
07.05.2021 12:26 7,3 C 84 % 1014,9 hPa 0,0 l/m 2 min 0 min 0,000 mm 4,5 UV-I 551 W/m 4,8 C 3,2 C 20,9 km/h (4 Bft) 100 %
07.05.2021 12:24 7,3 C 84 % 1014,9 hPa 0,0 l/m 0 min 0 min 0,000 mm 4,4 UV-I 496 W/m 4,8 C 1,4 C 27,4 km/h (4 Bft) 98 %
07.05.2021 12:22 7,4 C 85 % 1014,9 hPa 0,0 l/m 0 min 0 min 0,000 mm 3,5 UV-I 393 W/m 5,0 C 2,5 C 24,1 km/h (4 Bft) 100 %
07.05.2021 12:20 7,4 C 86 % 1014,9 hPa 0,0 l/m 2 min 0 min 0,000 mm 3,5 UV-I 982 W/m 5,2 C 2,2 C 20,9 km/h (4 Bft) 100 %
07.05.2021 12:18 7,4 C 86 % 1014,8 hPa 0,0 l/m 0 min 0 min 0,000 mm 3,8 UV-I 377 W/m 5,2 C 0,5 C 29,0 km/h (5 Bft) 100 %
07.05.2021 12:16 7,4 C 87 % 1014,8 hPa 0,0 l/m 0 min 0 min 0,000 mm 2,4 UV-I 299 W/m 5,4 C 5,7 C 20,9 km/h (4 Bft) 100 %
07.05.2021 12:14 7,5 C 88 % 1014,7 hPa 0,0 l/m 0 min 0 min 0,000 mm 2,0 UV-I 256 W/m 5,6 C 1,2 C 24,1 km/h (4 Bft) 100 %
07.05.2021 12:12 7,5 C 89 % 1014,7 hPa 0,0 l/m 2 min 0 min 0,000 mm 3,3 UV-I 757 W/m 5,8 C 3,0 C 22,5 km/h (4 Bft) 100 %
07.05.2021 12:10 7,3 C 89 % 1014,7 hPa 0,0 l/m 2 min 0 min 0,000 mm 5,4 UV-I 1045 W/m 5,6 C 1,9 C 24,1 km/h (4 Bft) 100 %
07.05.2021 12:08 7,2 C 90 % 1014,7 hPa 0,0 l/m 0 min 0 min 0,000 mm 4,6 UV-I 419 W/m 5,7 C 2,3 C 22,5 km/h (4 Bft) 100 %
07.05.2021 12:06 7,2 C 90 % 1014,6 hPa 0,0 l/m 0 min 0 min 0,000 mm 2,9 UV-I 250 W/m 5,7 C 3,3 C 17,7 km/h (3 Bft) 100 %
07.05.2021 12:04 7,2 C 91 % 1014,6 hPa 0,0 l/m 0 min 0 min 0,000 mm 2,0 UV-I 223 W/m 5,8 C 3,3 C 19,3 km/h (3 Bft) 100 %
07.05.2021 12:02 7,3 C 92 % 1014,6 hPa 0,0 l/m 2 min 0 min 0,177 mm 2,3 UV-I 523 W/m 6,1 C 3,8 C 17,7 km/h (3 Bft) 100 %
07.05.2021 12:00 7,2 C 92 % 1014,5 hPa 0,0 l/m 2 min 0 min 0,000 mm 4,1 UV-I 946 W/m 6,0 C 3,2 C 24,1 km/h (4 Bft) 100 %
07.05.2021 11:58 6,9 C 92 % 1014,5 hPa 0,0 l/m 2 min 0 min 0,000 mm 5,1 UV-I 504 W/m 5,7 C 3,5 C 22,5 km/h (4 Bft) 100 %
07.05.2021 11:56 6,7 C 92 % 1014,5 hPa 0,0 l/m 0 min 0 min 0,000 mm 3,4 UV-I 316 W/m 5,5 C 1,0 C 22,5 km/h (4 Bft) 100 %
07.05.2021 11:54 6,8 C 93 % 1014,4 hPa 0,0 l/m 2 min 0 min 0,000 mm 4,0 UV-I 1013 W/m 5,7 C 3,7 C 16,1 km/h (3 Bft) 98 %
07.05.2021 11:52 6,8 C 93 % 1014,3 hPa 0,0 l/m 0 min 0 min 0,000 mm 3,1 UV-I 354 W/m 5,7 C 1,6 C 19,3 km/h (3 Bft) 98 %
07.05.2021 11:50 6,8 C 95 % 1014,3 hPa 0,0 l/m 0 min 0 min 0,000 mm 2,7 UV-I 454 W/m 6,1 C 2,5 C 16,1 km/h (3 Bft) 100 %
07.05.2021 11:48 6,7 C 95 % 1014,2 hPa 0,0 l/m 2 min 0 min 0,000 mm 4,0 UV-I 609 W/m 6,0 C 3,9 C 16,1 km/h (3 Bft) 100 %
07.05.2021 11:46 6,3 C 95 % 1014,2 hPa 0,0 l/m 2 min 0 min 0,000 mm 4,8 UV-I 810 W/m 5,6 C 3,2 C 16,1 km/h (3 Bft) 98 %
07.05.2021 11:44 5,9 C 95 % 1014,2 hPa 0,0 l/m 2 min 0 min 0,000 mm 4,0 UV-I 481 W/m 5,2 C 2,9 C 17,7 km/h (3 Bft) 98 %
07.05.2021 11:42 5,8 C 94 % 1014,1 hPa 0,0 l/m 2 min 0 min 0,000 mm 3,4 UV-I 609 W/m 4,9 C 0,5 C 25,7 km/h (4 Bft) 98 %
07.05.2021 11:40 5,7 C 95 % 1014,1 hPa 0,0 l/m 2 min 0 min 0,000 mm 3,8 UV-I 533 W/m 5,0 C 2,3 C 24,1 km/h (4 Bft) 98 %
07.05.2021 11:38 5,5 C 95 % 1014,1 hPa 0,0 l/m 0 min 0 min 0,000 mm 3,3 UV-I 359 W/m 4,8 C 2,6 C 17,7 km/h (3 Bft) 100 %
07.05.2021 11:36 5,5 C 95 % 1014,0 hPa 0,0 l/m 0 min 0 min 0,000 mm 2,7 UV-I 312 W/m 4,8 C 4,8 C 16,1 km/h (3 Bft) 100 %
07.05.2021 11:34 5,4 C 95 % 1014,0 hPa 0,0 l/m 0 min 0 min 0,000 mm 2,7 UV-I 408 W/m 4,7 C 2,8 C 20,9 km/h (4 Bft) 100 %
07.05.2021 11:32 5,3 C 95 % 1013,9 hPa 0,0 l/m 2 min 0 min 0,000 mm 3,4 UV-I 755 W/m 4,6 C 0,5 C 20,9 km/h (4 Bft) 96 %
07.05.2021 11:30 5,0 C 95 % 1013,9 hPa 0,0 l/m 2 min 0 min 0,000 mm 4,4 UV-I 684 W/m 4,3 C -0,7 C 20,9 km/h (4 Bft) 98 %
07.05.2021 11:28 4,8 C 95 % 1013,8 hPa 0,0 l/m 0 min 0 min 0,000 mm 3,6 UV-I 397 W/m 4,1 C -0,9 C 19,3 km/h (3 Bft) 98 %
07.05.2021 11:26 4,7 C 94 % 1013,8 hPa 0,0 l/m 0 min 0 min 0,000 mm 3,4 UV-I 380 W/m 3,8 C -1,6 C 24,1 km/h (4 Bft) 96 %
07.05.2021 11:24 4,6 C 94 % 1013,7 hPa 0,0 l/m 0 min 0 min 0,000 mm 2,2 UV-I 297 W/m 3,7 C -2,3 C 24,1 km/h (4 Bft) 94 %
07.05.2021 11:22 4,6 C 94 % 1013,6 hPa 0,0 l/m 0 min 2 min 0,000 mm 2,4 UV-I 357 W/m 3,7 C -0,7 C 20,9 km/h (4 Bft) 87 %
07.05.2021 11:20 4,5 C 94 % 1013,5 hPa 0,0 l/m 0 min 2 min 0,000 mm 2,4 UV-I 299 W/m 3,6 C -1,7 C 27,4 km/h (4 Bft) 94 %
07.05.2021 11:18 4,4 C 94 % 1013,5 hPa 0,0 l/m 0 min 0 min 0,000 mm 2,2 UV-I 295 W/m 3,5 C 0,4 C 20,9 km/h (4 Bft) 94 %
07.05.2021 11:16 4,4 C 94 % 1013,5 hPa 0,0 l/m 0 min 2 min 0,000 mm 1,8 UV-I 227 W/m 3,5 C -0,9 C 19,3 km/h (3 Bft) 90 %
07.05.2021 11:14 4,4 C 94 % 1013,4 hPa 0,0 l/m 0 min 2 min 0,000 mm 1,5 UV-I 195 W/m 3,5 C 0,4 C 19,3 km/h (3 Bft) 91 %
07.05.2021 11:12 4,3 C 94 % 1013,3 hPa 0,0 l/m 0 min 2 min 0,000 mm 1,8 UV-I 246 W/m 3,4 C -0,5 C 20,9 km/h (4 Bft) 91 %
07.05.2021 11:10 4,3 C 94 % 1013,2 hPa 0,0 l/m 0 min 2 min 0,000 mm 1,9 UV-I 266 W/m 3,4 C 0,7 C 17,7 km/h (3 Bft) 94 %
07.05.2021 11:08 4,3 C 94 % 1013,2 hPa 0,0 l/m 0 min 2 min 0,000 mm 1,5 UV-I 189 W/m 3,4 C -1,8 C 20,9 km/h (4 Bft) 94 %
07.05.2021 11:06 4,3 C 94 % 1013,1 hPa 0,0 l/m 0 min 2 min 0,000 mm 1,6 UV-I 221 W/m 3,4 C -2,1 C 24,1 km/h (4 Bft) 94 %
07.05.2021 11:04 4,2 C 94 % 1013,0 hPa 0,0 l/m 0 min 2 min 0,000 mm 2,2 UV-I 341 W/m 3,3 C -2,2 C 20,9 km/h (4 Bft) 94 %
07.05.2021 11:02 4,2 C 94 % 1013,1 hPa 0,0 l/m 0 min 2 min 0,051 mm 2,0 UV-I 300 W/m 3,3 C -3,1 C 25,7 km/h (4 Bft) 98 %
07.05.2021 11:00 4,1 C 93 % 1013,0 hPa 0,0 l/m 0 min 2 min 0,000 mm 1,8 UV-I 240 W/m 3,1 C -2,1 C 25,7 km/h (4 Bft) 96 %
07.05.2021 10:58 4,1 C 93 % 1012,9 hPa 0,0 l/m 0 min 2 min 0,000 mm 1,4 UV-I 153 W/m 3,1 C -2,5 C 25,7 km/h (4 Bft) 98 %
07.05.2021 10:56 4,2 C 93 % 1012,9 hPa 0,0 l/m 0 min 2 min 0,000 mm 1,3 UV-I 151 W/m 3,2 C -4,0 C 25,7 km/h (4 Bft) 98 %
07.05.2021 10:54 4,3 C 93 % 1012,8 hPa 0,0 l/m 0 min 2 min 0,000 mm 1,2 UV-I 133 W/m 3,3 C -3,4 C 27,4 km/h (4 Bft) 98 %
07.05.2021 10:52 4,4 C 93 % 1012,7 hPa 0,0 l/m 0 min 2 min 0,000 mm 1,0 UV-I 108 W/m 3,4 C -3,4 C 27,4 km/h (4 Bft) 96 %
07.05.2021 10:50 4,4 C 93 % 1012,6 hPa 0,0 l/m 0 min 2 min 0,000 mm 1,1 UV-I 91 W/m 3,4 C -3,0 C 24,1 km/h (4 Bft) 98 %
07.05.2021 10:48 4,6 C 93 % 1012,6 hPa 0,0 l/m 0 min 2 min 0,000 mm 1,0 UV-I 73 W/m 3,6 C -3,1 C 27,4 km/h (4 Bft) 98 %
07.05.2021 10:46 4,7 C 93 % 1012,6 hPa 0,0 l/m 0 min 2 min 0,000 mm 0,9 UV-I 72 W/m 3,7 C -3,2 C 25,7 km/h (4 Bft) 98 %
07.05.2021 10:44 4,7 C 93 % 1012,4 hPa 0,0 l/m 0 min 2 min 0,000 mm 0,9 UV-I 84 W/m 3,7 C -2,9 C 29,0 km/h (5 Bft) 96 %
07.05.2021 10:42 4,8 C 93 % 1012,3 hPa 0,0 l/m 0 min 2 min 0,000 mm 0,9 UV-I 81 W/m 3,8 C -2,5 C 30,6 km/h (5 Bft) 96 %
07.05.2021 10:40 4,9 C 93 % 1012,2 hPa 0,0 l/m 0 min 2 min 0,000 mm 0,4 UV-I 42 W/m 3,9 C -3,1 C 30,6 km/h (5 Bft) 98 %
07.05.2021 10:38 4,9 C 93 % 1012,1 hPa 0,0 l/m 0 min 2 min 0,000 mm 0,0 UV-I 25 W/m 3,9 C 1,7 C 19,3 km/h (3 Bft) 94 %
07.05.2021 10:36 4,9 C 93 % 1012,0 hPa 0,0 l/m 0 min 2 min 0,000 mm 0,0 UV-I 26 W/m 3,9 C -0,1 C 25,7 km/h (4 Bft) 94 %
07.05.2021 10:34 5,0 C 93 % 1011,8 hPa 0,0 l/m 0 min 2 min 0,000 mm 0,0 UV-I 35 W/m 4,0 C -1,6 C 22,5 km/h (4 Bft) 98 %
07.05.2021 10:32 5,0 C 93 % 1011,7 hPa 0,0 l/m 0 min 2 min 0,000 mm 0,0 UV-I 35 W/m 4,0 C 0,3 C 30,6 km/h (5 Bft) 98 %
07.05.2021 10:30 5,0 C 93 % 1011,7 hPa 0,0 l/m 0 min 2 min 0,000 mm 0,0 UV-I 32 W/m 4,0 C -1,5 C 25,7 km/h (4 Bft) 96 %
07.05.2021 10:28 5,1 C 93 % 1011,6 hPa 0,0 l/m 0 min 2 min 0,000 mm 0,0 UV-I 32 W/m 4,1 C -0,7 C 27,4 km/h (4 Bft) 98 %
07.05.2021 10:26 5,1 C 94 % 1011,7 hPa 0,0 l/m 0 min 2 min 0,000 mm 0,2 UV-I 37 W/m 4,2 C -0,6 C 22,5 km/h (4 Bft) 98 %
07.05.2021 10:24 5,1 C 94 % 1011,5 hPa 0,0 l/m 0 min 0 min 0,000 mm 0,7 UV-I 50 W/m 4,2 C -0,1 C 25,7 km/h (4 Bft) 98 %
07.05.2021 10:22 5,1 C 94 % 1011,4 hPa 0,0 l/m 0 min 0 min 0,000 mm 0,8 UV-I 60 W/m 4,2 C -0,4 C 33,8 km/h (5 Bft) 98 %
07.05.2021 10:20 5,1 C 94 % 1011,3 hPa 0,0 l/m 0 min 0 min 0,000 mm 0,8 UV-I 77 W/m 4,2 C -1,9 C 24,1 km/h (4 Bft) 98 %
07.05.2021 10:18 5,1 C 94 % 1011,3 hPa 0,0 l/m 0 min 0 min 0,000 mm 1,1 UV-I 128 W/m 4,2 C -1,5 C 27,4 km/h (4 Bft) 98 %
07.05.2021 10:16 5,1 C 94 % 1011,1 hPa 0,0 l/m 0 min 0 min 0,000 mm 1,5 UV-I 194 W/m 4,2 C -1,3 C 30,6 km/h (5 Bft) 96 %
07.05.2021 10:14 5,0 C 99 % 1011,1 hPa 0,0 l/m 0 min 0 min 0,000 mm 1,5 UV-I 184 W/m 4,9 C 1,5 C 22,5 km/h (4 Bft) 96 %
07.05.2021 10:12 4,9 C 94 % 1011,0 hPa 0,0 l/m 0 min 0 min 0,000 mm 1,3 UV-I 158 W/m 4,0 C 0,0 C 20,9 km/h (4 Bft) 98 %
07.05.2021 10:10 4,9 C 94 % 1011,0 hPa 0,0 l/m 0 min 0 min 0,000 mm 1,0 UV-I 107 W/m 4,0 C 3,7 C 12,9 km/h (3 Bft) 98 %
07.05.2021 10:08 4,9 C 94 % 1011,0 hPa 0,0 l/m 0 min 0 min 0,000 mm 1,2 UV-I 133 W/m 4,0 C 4,9 C 12,9 km/h (3 Bft) 93 %
07.05.2021 10:06 4,9 C 94 % 1011,1 hPa 0,0 l/m 0 min 0 min 0,000 mm 1,2 UV-I 156 W/m 4,0 C -1,3 C 27,4 km/h (4 Bft) 96 %
07.05.2021 10:04 4,9 C 94 % 1011,0 hPa 0,0 l/m 0 min 0 min 0,000 mm 1,1 UV-I 129 W/m 4,0 C 1,1 C 22,5 km/h (4 Bft) 96 %
07.05.2021 10:02 4,9 C 94 % 1011,0 hPa 0,0 l/m 0 min 0 min 0,076 mm 0,9 UV-I 86 W/m 4,0 C 0,0 C 20,9 km/h (4 Bft) 97 %
07.05.2021 10:00 4,9 C 94 % 1010,9 hPa 0,0 l/m 0 min 0 min 0,000 mm 0,8 UV-I 68 W/m 4,0 C 1,2 C 25,7 km/h (4 Bft) 94 %
07.05.2021 09:58 4,9 C 94 % 1010,9 hPa 0,0 l/m 0 min 0 min 0,000 mm 0,9 UV-I 77 W/m 4,0 C -0,3 C 27,4 km/h (4 Bft) 98 %
07.05.2021 09:56 4,9 C 94 % 1010,9 hPa 0,0 l/m 0 min 0 min 0,000 mm 0,9 UV-I 82 W/m 4,0 C -0,6 C 24,1 km/h (4 Bft) 98 %
07.05.2021 09:54 5,0 C 94 % 1010,8 hPa 0,0 l/m 0 min 0 min 0,000 mm 0,8 UV-I 72 W/m 4,1 C 1,5 C 24,1 km/h (4 Bft) 98 %
07.05.2021 09:52 5,1 C 94 % 1010,8 hPa 0,0 l/m 0 min 0 min 0,000 mm 0,8 UV-I 78 W/m 4,2 C 1,4 C 24,1 km/h (4 Bft) 96 %
07.05.2021 09:50 5,1 C 94 % 1010,7 hPa 0,0 l/m 0 min 0 min 0,000 mm 0,8 UV-I 76 W/m 4,2 C -1,3 C 27,4 km/h (4 Bft) 98 %
07.05.2021 09:48 5,1 C 94 % 1010,8 hPa 0,0 l/m 0 min 0 min 0,000 mm 0,8 UV-I 82 W/m 4,2 C 3,2 C 17,7 km/h (3 Bft) 98 %
07.05.2021 09:46 5,1 C 94 % 1010,7 hPa 0,0 l/m 0 min 0 min 0,000 mm 1,0 UV-I 120 W/m 4,2 C 1,9 C 20,9 km/h (4 Bft) 94 %
07.05.2021 09:44 5,1 C 94 % 1010,6 hPa 0,0 l/m 0 min 0 min 0,000 mm 1,1 UV-I 145 W/m 4,2 C 1,5 C 20,9 km/h (4 Bft) 96 %
07.05.2021 09:42 5,1 C 94 % 1010,6 hPa 0,0 l/m 0 min 0 min 0,000 mm 1,3 UV-I 175 W/m 4,2 C 1,3 C 19,3 km/h (3 Bft) 96 %
07.05.2021 09:40 5,1 C 94 % 1010,6 hPa 0,0 l/m 0 min 0 min 0,000 mm 1,2 UV-I 154 W/m 4,2 C 5,1 C 12,9 km/h (3 Bft) 98 %
07.05.2021 09:38 5,0 C 95 % 1010,6 hPa 0,0 l/m 0 min 0 min 0,000 mm 1,3 UV-I 193 W/m 4,3 C 1,1 C 24,1 km/h (4 Bft) 96 %
07.05.2021 09:36 4,9 C 95 % 1010,5 hPa 0,0 l/m 0 min 0 min 0,000 mm 1,6 UV-I 274 W/m 4,2 C -0,0 C 22,5 km/h (4 Bft) 98 %
07.05.2021 09:34 4,9 C 95 % 1010,4 hPa 0,0 l/m 0 min 0 min 0,000 mm 1,8 UV-I 274 W/m 4,2 C 1,3 C 22,5 km/h (4 Bft) 98 %
07.05.2021 09:32 4,8 C 95 % 1010,4 hPa 0,0 l/m 0 min 0 min 0,000 mm 1,7 UV-I 200 W/m 4,1 C -1,0 C 25,7 km/h (4 Bft) 98 %
07.05.2021 09:30 4,8 C 94 % 1010,4 hPa 0,0 l/m 0 min 0 min 0,000 mm 1,6 UV-I 201 W/m 3,9 C -1,7 C 22,5 km/h (4 Bft) 96 %
07.05.2021 09:28 4,8 C 94 % 1010,3 hPa 0,0 l/m 0 min 0 min 0,000 mm 1,3 UV-I 153 W/m 3,9 C 0,6 C 25,7 km/h (4 Bft) 98 %
07.05.2021 09:26 4,8 C 94 % 1010,3 hPa 0,0 l/m 0 min 0 min 0,000 mm 1,1 UV-I 146 W/m 3,9 C 1,8 C 17,7 km/h (3 Bft) 98 %
07.05.2021 09:24 4,8 C 95 % 1010,2 hPa 0,0 l/m 0 min 0 min 0,000 mm 1,1 UV-I 153 W/m 4,1 C 3,3 C 16,1 km/h (3 Bft) 96 %
07.05.2021 09:22 4,8 C 95 % 1010,2 hPa 0,0 l/m 0 min 0 min 0,000 mm 1,3 UV-I 177 W/m 4,1 C 1,8 C 19,3 km/h (3 Bft) 96 %
07.05.2021 09:20 4,8 C 95 % 1010,2 hPa 0,0 l/m 0 min 0 min 0,000 mm 1,2 UV-I 160 W/m 4,1 C -0,6 C 22,5 km/h (4 Bft) 98 %
07.05.2021 09:18 4,8 C 95 % 1010,2 hPa 0,0 l/m 0 min 0 min 0,000 mm 1,2 UV-I 188 W/m 4,1 C -2,2 C 25,7 km/h (4 Bft) 98 %
07.05.2021 09:16 4,8 C 95 % 1010,2 hPa 0,0 l/m 0 min 0 min 0,000 mm 1,3 UV-I 224 W/m 4,1 C -0,1 C 22,5 km/h (4 Bft) 98 %
07.05.2021 09:14 4,8 C 95 % 1010,2 hPa 0,0 l/m 2 min 0 min 0,000 mm 1,5 UV-I 351 W/m 4,1 C 0,0 C 24,1 km/h (4 Bft) 100 %
07.05.2021 09:12 4,6 C 95 % 1010,2 hPa 0,0 l/m 2 min 0 min 0,000 mm 1,5 UV-I 346 W/m 3,9 C 0,4 C 17,7 km/h (3 Bft) 100 %
07.05.2021 09:10 4,4 C 94 % 1010,1 hPa 0,0 l/m 2 min 0 min 0,000 mm 1,7 UV-I 447 W/m 3,5 C 1,9 C 14,5 km/h (3 Bft) 100 %
07.05.2021 09:08 4,2 C 94 % 1010,1 hPa 0,0 l/m 0 min 0 min 0,000 mm 1,6 UV-I 261 W/m 3,3 C 3,3 C 12,9 km/h (3 Bft) 100 %
07.05.2021 09:06 4,2 C 94 % 1010,0 hPa 0,0 l/m 0 min 0 min 0,000 mm 1,4 UV-I 102 W/m 3,3 C 1,1 C 22,5 km/h (4 Bft) 100 %
07.05.2021 09:04 4,2 C 94 % 1010,1 hPa 0,0 l/m 0 min 0 min 0,000 mm 1,3 UV-I 88 W/m 3,3 C 4,2 C 12,9 km/h (3 Bft) 100 %
07.05.2021 09:02 4,2 C 94 % 1010,0 hPa 0,0 l/m 0 min 2 min 0,026 mm 1,3 UV-I 89 W/m 3,3 C -0,0 C 22,5 km/h (4 Bft) 100 %
07.05.2021 09:00 4,2 C 94 % 1010,0 hPa 0,0 l/m 0 min 2 min 0,000 mm 1,2 UV-I 96 W/m 3,3 C 4,2 C 12,9 km/h (3 Bft) 100 %
07.05.2021 08:58 4,3 C 94 % 1010,0 hPa 0,0 l/m 0 min 2 min 0,000 mm 1,1 UV-I 97 W/m 3,4 C 2,1 C 16,1 km/h (3 Bft) 100 %
07.05.2021 08:56 4,4 C 93 % 1010,0 hPa 0,0 l/m 0 min 2 min 0,000 mm 0,9 UV-I 65 W/m 3,4 C -0,5 C 20,9 km/h (4 Bft) 100 %
07.05.2021 08:54 4,6 C 94 % 1010,1 hPa 0,0 l/m 0 min 2 min 0,000 mm 0,0 UV-I 34 W/m 3,7 C 1,3 C 20,9 km/h (4 Bft) 100 %
07.05.2021 08:52 4,7 C 94 % 1010,0 hPa 0,2 l/m 0 min 2 min 0,000 mm 0,0 UV-I 20 W/m 3,8 C 2,5 C 24,1 km/h (4 Bft) 100 %
07.05.2021 08:50 4,8 C 94 % 1010,3 hPa 0,2 l/m 0 min 2 min 0,000 mm 0,0 UV-I 15 W/m 3,9 C -1,0 C 30,6 km/h (5 Bft) 98 %
07.05.2021 08:48 4,9 C 94 % 1010,2 hPa 0,2 l/m 0 min 2 min 0,000 mm 0,0 UV-I 23 W/m 4,0 C 0,4 C 24,1 km/h (4 Bft) 100 %
07.05.2021 08:46 5,0 C 94 % 1010,3 hPa 0,2 l/m 0 min 2 min 0,000 mm 0,0 UV-I 35 W/m 4,1 C 2,1 C 17,7 km/h (3 Bft) 98 %
07.05.2021 08:44 5,1 C 94 % 1010,2 hPa 0,0 l/m 0 min 2 min 0,000 mm 0,0 UV-I 40 W/m 4,2 C 0,3 C 20,9 km/h (4 Bft) 93 %
07.05.2021 08:42 5,2 C 94 % 1010,2 hPa 0,2 l/m 0 min 2 min 0,000 mm 0,3 UV-I 46 W/m 4,3 C -2,0 C 29,0 km/h (5 Bft) 98 %
07.05.2021 08:40 5,2 C 94 % 1010,1 hPa 0,0 l/m 0 min 2 min 0,000 mm 0,7 UV-I 66 W/m 4,3 C 5,2 C 11,3 km/h (2 Bft) 96 %
07.05.2021 08:38 5,2 C 94 % 1010,0 hPa 0,0 l/m 0 min 2 min 0,000 mm 0,7 UV-I 74 W/m 4,3 C 2,2 C 19,3 km/h (3 Bft) 98 %
07.05.2021 08:36 5,2 C 94 % 1009,9 hPa 0,2 l/m 0 min 2 min 0,000 mm 0,7 UV-I 66 W/m 4,3 C 3,0 C 14,5 km/h (3 Bft) 98 %
07.05.2021 08:34 5,2 C 94 % 1009,9 hPa 0,0 l/m 0 min 2 min 0,000 mm 0,7 UV-I 69 W/m 4,3 C 4,1 C 14,5 km/h (3 Bft) 98 %
07.05.2021 08:32 5,3 C 95 % 1009,9 hPa 0,0 l/m 0 min 2 min 0,000 mm 0,6 UV-I 57 W/m 4,6 C 1,1 C 19,3 km/h (3 Bft) 96 %
07.05.2021 08:30 5,3 C 94 % 1009,8 hPa 0,0 l/m 0 min 2 min 0,000 mm 0,6 UV-I 55 W/m 4,4 C 5,3 C 11,3 km/h (2 Bft) 98 %
07.05.2021 08:28 5,3 C 94 % 1009,8 hPa 0,0 l/m 0 min 2 min 0,000 mm 0,7 UV-I 75 W/m 4,4 C 5,3 C 11,3 km/h (2 Bft) 96 %
07.05.2021 08:26 5,3 C 95 % 1009,8 hPa 0,0 l/m 0 min 2 min 0,000 mm 0,7 UV-I 61 W/m 4,6 C 1,7 C 20,9 km/h (4 Bft) 98 %
07.05.2021 08:24 5,3 C 95 % 1009,8 hPa 0,0 l/m 0 min 2 min 0,000 mm 0,6 UV-I 48 W/m 4,6 C 2,7 C 17,7 km/h (3 Bft) 96 %
07.05.2021 08:22 5,3 C 95 % 1009,8 hPa 0,0 l/m 0 min 2 min 0,000 mm 0,0 UV-I 35 W/m 4,6 C 5,0 C 14,5 km/h (3 Bft) 96 %
07.05.2021 08:20 5,3 C 95 % 1009,8 hPa 0,2 l/m 0 min 2 min 0,000 mm 0,0 UV-I 20 W/m 4,6 C 5,3 C 9,7 km/h (2 Bft) 96 %
07.05.2021 08:18 5,3 C 95 % 1009,8 hPa 0,0 l/m 0 min 2 min 0,000 mm 0,1 UV-I 21 W/m 4,6 C 5,3 C 9,7 km/h (2 Bft) 98 %
07.05.2021 08:16 5,2 C 95 % 1009,6 hPa 0,0 l/m 0 min 2 min 0,000 mm 0,6 UV-I 65 W/m 4,5 C 3,6 C 12,9 km/h (3 Bft) 100 %
07.05.2021 08:14 5,2 C 95 % 1009,6 hPa 0,0 l/m 0 min 2 min 0,000 mm 0,7 UV-I 107 W/m 4,5 C 5,2 C 12,9 km/h (3 Bft) 100 %
07.05.2021 08:12 5,2 C 95 % 1009,5 hPa 0,0 l/m 0 min 0 min 0,000 mm 0,9 UV-I 143 W/m 4,5 C 5,2 C 9,7 km/h (2 Bft) 98 %
07.05.2021 08:10 5,2 C 95 % 1009,4 hPa 0,0 l/m 0 min 2 min 0,000 mm 0,9 UV-I 131 W/m 4,5 C 5,2 C 4,8 km/h (1 Bft) 100 %
07.05.2021 08:08 5,2 C 95 % 1009,4 hPa 0,0 l/m 0 min 2 min 0,000 mm 0,9 UV-I 96 W/m 4,5 C 5,2 C 14,5 km/h (3 Bft) 100 %
07.05.2021 08:06 5,2 C 95 % 1009,4 hPa 0,0 l/m 0 min 2 min 0,000 mm 0,7 UV-I 69 W/m 4,5 C 5,2 C 12,9 km/h (3 Bft) 98 %
07.05.2021 08:04 5,2 C 95 % 1009,5 hPa 0,0 l/m 0 min 2 min 0,000 mm 0,5 UV-I 49 W/m 4,5 C 3,6 C 12,9 km/h (3 Bft) 98 %
07.05.2021 08:02 5,1 C 95 % 1009,5 hPa 0,0 l/m 0 min 2 min 0,051 mm 0,3 UV-I 43 W/m 4,4 C 5,1 C 16,1 km/h (3 Bft) 100 %
07.05.2021 08:00 5,1 C 95 % 1009,5 hPa 0,0 l/m 0 min 2 min 0,000 mm 0,6 UV-I 70 W/m 4,4 C 4,4 C 12,9 km/h (3 Bft) 100 %
07.05.2021 07:58 5,1 C 95 % 1009,5 hPa 0,0 l/m 0 min 2 min 0,000 mm 0,7 UV-I 98 W/m 4,4 C 5,1 C 8,0 km/h (2 Bft) 98 %
07.05.2021 07:56 5,1 C 95 % 1009,5 hPa 0,0 l/m 0 min 2 min 0,000 mm 0,7 UV-I 83 W/m 4,4 C 5,1 C 11,3 km/h (2 Bft) 98 %
07.05.2021 07:54 5,1 C 95 % 1009,5 hPa 0,0 l/m 0 min 2 min 0,000 mm 0,7 UV-I 102 W/m 4,4 C 5,1 C 11,3 km/h (2 Bft) 96 %
07.05.2021 07:52 5,0 C 95 % 1009,6 hPa 0,0 l/m 0 min 2 min 0,000 mm 0,7 UV-I 95 W/m 4,3 C 5,0 C 12,9 km/h (3 Bft) 98 %
07.05.2021 07:50 4,9 C 95 % 1009,6 hPa 0,0 l/m 0 min 0 min 0,000 mm 0,7 UV-I 88 W/m 4,2 C 4,9 C 11,3 km/h (2 Bft) 98 %
07.05.2021 07:48 4,9 C 95 % 1009,5 hPa 0,0 l/m 0 min 0 min 0,000 mm 0,7 UV-I 87 W/m 4,2 C 4,9 C 9,7 km/h (2 Bft) 94 %
07.05.2021 07:46 4,9 C 95 % 1009,5 hPa 0,0 l/m 0 min 2 min 0,000 mm 0,7 UV-I 86 W/m 4,2 C 4,9 C 9,7 km/h (2 Bft) 96 %
07.05.2021 07:44 4,9 C 95 % 1009,5 hPa 0,0 l/m 0 min 0 min 0,000 mm 0,7 UV-I 80 W/m 4,2 C 4,9 C 9,7 km/h (2 Bft) 96 %
07.05.2021 07:42 4,8 C 95 % 1009,3 hPa 0,0 l/m 0 min 0 min 0,000 mm 0,7 UV-I 66 W/m 4,1 C 4,8 C 6,4 km/h (2 Bft) 98 %
07.05.2021 07:40 4,8 C 95 % 1009,3 hPa 0,0 l/m 0 min 0 min 0,000 mm 0,7 UV-I 62 W/m 4,1 C 4,8 C 6,4 km/h (2 Bft) 98 %
07.05.2021 07:38 4,8 C 95 % 1009,1 hPa 0,0 l/m 0 min 0 min 0,000 mm 0,7 UV-I 69 W/m 4,1 C 4,8 C 9,7 km/h (2 Bft) 98 %
07.05.2021 07:36 4,8 C 96 % 1009,2 hPa 0,0 l/m 0 min 0 min 0,000 mm 0,7 UV-I 81 W/m 4,2 C 4,8 C 9,7 km/h (2 Bft) 98 %
07.05.2021 07:34 4,8 C 96 % 1009,2 hPa 0,0 l/m 0 min 0 min 0,000 mm 0,7 UV-I 86 W/m 4,2 C 1,9 C 19,3 km/h (3 Bft) 98 %
07.05.2021 07:32 4,7 C 95 % 1009,1 hPa 0,0 l/m 0 min 0 min 0,000 mm 0,7 UV-I 89 W/m 4,0 C 4,7 C 6,4 km/h (2 Bft) 98 %
07.05.2021 07:30 4,7 C 96 % 1009,1 hPa 0,0 l/m 0 min 0 min 0,000 mm 0,7 UV-I 90 W/m 4,1 C 4,7 C 9,7 km/h (2 Bft) 96 %
07.05.2021 07:28 4,6 C 96 % 1009,1 hPa 0,0 l/m 0 min 0 min 0,000 mm 0,7 UV-I 78 W/m 4,0 C 4,6 C 14,5 km/h (3 Bft) 98 %
07.05.2021 07:26 4,6 C 96 % 1009,1 hPa 0,0 l/m 0 min 0 min 0,000 mm 0,7 UV-I 78 W/m 4,0 C 4,6 C 14,5 km/h (3 Bft) 98 %
07.05.2021 07:24 4,5 C 96 % 1009,2 hPa 0,0 l/m 0 min 0 min 0,000 mm 0,7 UV-I 121 W/m 3,9 C 4,5 C 17,7 km/h (3 Bft) 98 %
07.05.2021 07:22 4,4 C 95 % 1009,1 hPa 0,0 l/m 0 min 0 min 0,000 mm 0,7 UV-I 99 W/m 3,7 C 4,4 C 12,9 km/h (3 Bft) 98 %
07.05.2021 07:20 4,4 C 96 % 1009,1 hPa 0,0 l/m 0 min 0 min 0,000 mm 0,7 UV-I 84 W/m 3,8 C 4,4 C 8,0 km/h (2 Bft) 100 %
07.05.2021 07:18 4,3 C 96 % 1009,2 hPa 0,0 l/m 0 min 0 min 0,000 mm 0,7 UV-I 79 W/m 3,7 C 4,3 C 8,0 km/h (2 Bft) 98 %
07.05.2021 07:16 4,3 C 96 % 1009,2 hPa 0,0 l/m 0 min 0 min 0,000 mm 0,7 UV-I 114 W/m 3,7 C 4,3 C 9,7 km/h (2 Bft) 91 %
07.05.2021 07:14 4,2 C 96 % 1009,2 hPa 0,0 l/m 2 min 0 min 0,000 mm 0,7 UV-I 119 W/m 3,6 C 4,2 C 8,0 km/h (2 Bft) 98 %
07.05.2021 07:12 4,1 C 95 % 1009,2 hPa 0,0 l/m 0 min 0 min 0,000 mm 0,6 UV-I 102 W/m 3,4 C 4,1 C 14,5 km/h (3 Bft) 98 %
07.05.2021 07:10 3,9 C 95 % 1009,1 hPa 0,0 l/m 2 min 0 min 0,000 mm 0,6 UV-I 122 W/m 3,2 C 3,9 C 12,9 km/h (3 Bft) 98 %
07.05.2021 07:08 3,9 C 95 % 1009,1 hPa 0,0 l/m 2 min 0 min 0,000 mm 0,6 UV-I 127 W/m 3,2 C 3,9 C 6,4 km/h (2 Bft) 94 %
07.05.2021 07:06 3,8 C 95 % 1009,1 hPa 0,0 l/m 2 min 0 min 0,000 mm 0,6 UV-I 114 W/m 3,1 C 3,8 C 9,7 km/h (2 Bft) 98 %
07.05.2021 07:04 3,8 C 95 % 1009,1 hPa 0,0 l/m 0 min 0 min 0,000 mm 0,6 UV-I 82 W/m 3,1 C 3,8 C 4,8 km/h (1 Bft) 96 %
07.05.2021 07:02 3,8 C 95 % 1009,1 hPa 0,0 l/m 0 min 0 min 0,025 mm 0,6 UV-I 89 W/m 3,1 C 3,8 C 6,4 km/h (2 Bft) 96 %
07.05.2021 07:00 3,8 C 95 % 1009,0 hPa 0,0 l/m 0 min 0 min 0,000 mm 0,6 UV-I 76 W/m 3,1 C 3,8 C 8,0 km/h (2 Bft) 96 %
07.05.2021 06:58 3,8 C 95 % 1009,0 hPa 0,0 l/m 0 min 0 min 0,000 mm 0,6 UV-I 71 W/m 3,1 C 3,8 C 8,0 km/h (2 Bft) 98 %
07.05.2021 06:56 3,8 C 95 % 1009,1 hPa 0,0 l/m 0 min 0 min 0,000 mm 0,6 UV-I 74 W/m 3,1 C 3,8 C 6,4 km/h (2 Bft) 96 %
07.05.2021 06:54 3,8 C 95 % 1009,0 hPa 0,0 l/m 0 min 0 min 0,000 mm 0,6 UV-I 73 W/m 3,1 C 3,8 C 4,8 km/h (1 Bft) 96 %
07.05.2021 06:52 3,7 C 95 % 1009,0 hPa 0,0 l/m 0 min 0 min 0,000 mm 0,6 UV-I 67 W/m 3,0 C 3,7 C 4,8 km/h (1 Bft) 98 %
07.05.2021 06:50 3,7 C 95 % 1009,0 hPa 0,0 l/m 0 min 0 min 0,000 mm 0,6 UV-I 65 W/m 3,0 C 3,7 C 6,4 km/h (2 Bft) 100 %
07.05.2021 06:48 3,7 C 95 % 1009,1 hPa 0,0 l/m 0 min 0 min 0,000 mm 0,6 UV-I 60 W/m 3,0 C 3,7 C 3,2 km/h (1 Bft) 100 %
07.05.2021 06:46 3,7 C 95 % 1009,1 hPa 0,0 l/m 0 min 0 min 0,000 mm 0,6 UV-I 51 W/m 3,0 C 3,7 C 4,8 km/h (1 Bft) 100 %
07.05.2021 06:44 3,7 C 95 % 1009,0 hPa 0,0 l/m 0 min 0 min 0,000 mm 0,6 UV-I 47 W/m 3,0 C 3,7 C 6,4 km/h (2 Bft) 100 %
07.05.2021 06:42 3,7 C 95 % 1009,1 hPa 0,0 l/m 0 min 0 min 0,000 mm 0,2 UV-I 43 W/m 3,0 C 3,7 C 4,8 km/h (1 Bft) 100 %
07.05.2021 06:40 3,7 C 95 % 1009,1 hPa 0,0 l/m 0 min 0 min 0,000 mm 0,0 UV-I 39 W/m 3,0 C 3,7 C 3,2 km/h (1 Bft) 100 %
07.05.2021 06:38 3,7 C 95 % 1009,2 hPa 0,0 l/m 0 min 0 min 0,000 mm 0,3 UV-I 43 W/m 3,0 C 3,7 C 4,8 km/h (1 Bft) 100 %
07.05.2021 06:36 3,7 C 95 % 1009,2 hPa 0,0 l/m 0 min 0 min 0,000 mm 0,0 UV-I 39 W/m 3,0 C 3,7 C 3,2 km/h (1 Bft) 100 %
07.05.2021 06:34 3,7 C 95 % 1009,1 hPa 0,0 l/m 0 min 0 min 0,000 mm 0,0 UV-I 35 W/m 3,0 C 3,7 C 4,8 km/h (1 Bft) 98 %
07.05.2021 06:32 3,8 C 95 % 1009,2 hPa 0,0 l/m 0 min 0 min 0,000 mm 0,0 UV-I 33 W/m 3,1 C 3,8 C 9,7 km/h (2 Bft) 100 %
07.05.2021 06:30 3,7 C 95 % 1009,1 hPa 0,0 l/m 0 min 0 min 0,000 mm 0,0 UV-I 29 W/m 3,0 C 3,7 C 3,2 km/h (1 Bft) 98 %
07.05.2021 06:28 3,8 C 95 % 1009,1 hPa 0,0 l/m 0 min 0 min 0,000 mm 0,0 UV-I 24 W/m 3,1 C 3,8 C 3,2 km/h (1 Bft) 98 %
07.05.2021 06:26 3,8 C 95 % 1009,0 hPa 0,0 l/m 0 min 0 min 0,000 mm 0,0 UV-I 23 W/m 3,1 C 3,8 C 8,0 km/h (2 Bft) 98 %
07.05.2021 06:24 3,8 C 95 % 1009,0 hPa 0,0 l/m 0 min 0 min 0,000 mm 0,0 UV-I 21 W/m 3,1 C 3,8 C 4,8 km/h (1 Bft) 99 %
07.05.2021 06:20 3,9 C 95 % 1009,0 hPa 0,0 l/m 0 min 0 min 0,000 mm 0,0 UV-I 19 W/m 3,2 C 3,9 C 3,2 km/h (1 Bft) 98 %
07.05.2021 06:18 3,9 C 95 % 1009,0 hPa 0,0 l/m 0 min 0 min 0,000 mm 0,0 UV-I 15 W/m 3,2 C 3,9 C 3,2 km/h (1 Bft) 96 %
07.05.2021 06:16 3,9 C 95 % 1009,0 hPa 0,0 l/m 0 min 0 min 0,000 mm 0,0 UV-I 14 W/m 3,2 C 3,9 C 6,4 km/h (2 Bft) 98 %
07.05.2021 06:14 3,9 C 95 % 1008,9 hPa 0,0 l/m 0 min 0 min 0,000 mm 0,0 UV-I 13 W/m 3,2 C 3,9 C 6,4 km/h (2 Bft) 98 %
07.05.2021 06:12 3,9 C 95 % 1008,9 hPa 0,0 l/m 0 min 0 min 0,000 mm 0,0 UV-I 11 W/m 3,2 C 3,9 C 4,8 km/h (1 Bft) 96 %
07.05.2021 06:10 3,9 C 95 % 1008,9 hPa 0,0 l/m 0 min 0 min 0,000 mm 0,0 UV-I 11 W/m 3,2 C 3,9 C 11,3 km/h (2 Bft) 98 %
07.05.2021 06:08 3,9 C 95 % 1008,9 hPa 0,0 l/m 0 min 0 min 0,000 mm 0,0 UV-I 9 W/m 3,2 C 3,9 C 11,3 km/h (2 Bft) 96 %
07.05.2021 06:06 3,9 C 95 % 1008,9 hPa 0,0 l/m 0 min 0 min 0,000 mm 0,0 UV-I 9 W/m 3,2 C 3,9 C 8,0 km/h (2 Bft) 96 %
07.05.2021 06:04 3,9 C 95 % 1008,9 hPa 0,0 l/m 0 min 0 min 0,000 mm 0,0 UV-I 7 W/m 3,2 C 3,6 C 11,3 km/h (2 Bft) 98 %
07.05.2021 06:02 3,9 C 95 % 1008,9 hPa 0,0 l/m 0 min 0 min 0,000 mm 0,0 UV-I 7 W/m 3,2 C 3,9 C 3,2 km/h (1 Bft) 97 %
07.05.2021 06:00 3,9 C 95 % 1008,8 hPa 0,0 l/m 0 min 0 min 0,000 mm 0,0 UV-I 5 W/m 3,2 C 3,9 C 8,0 km/h (2 Bft) 94 %
07.05.2021 05:58 3,8 C 95 % 1008,8 hPa 0,0 l/m 0 min 0 min 0,000 mm 0,0 UV-I 3 W/m 3,1 C 3,8 C 11,3 km/h (2 Bft) 93 %
07.05.2021 05:56 3,8 C 95 % 1008,8 hPa 0,0 l/m 0 min 0 min 0,000 mm 0,0 UV-I 1 W/m 3,1 C 3,8 C 6,4 km/h (2 Bft) 94 %
07.05.2021 05:54 3,8 C 95 % 1008,8 hPa 0,0 l/m 0 min 0 min 0,000 mm 0,0 UV-I 0 W/m 3,1 C 3,8 C 4,8 km/h (1 Bft) 94 %
07.05.2021 05:52 3,8 C 95 % 1008,7 hPa 0,0 l/m 0 min 0 min 0,000 mm 0,0 UV-I 0 W/m 3,1 C 3,8 C 6,4 km/h (2 Bft) 96 %
07.05.2021 05:50 3,8 C 95 % 1008,7 hPa 0,0 l/m 0 min 0 min 0,000 mm 0,0 UV-I 0 W/m 3,1 C 3,8 C 4,8 km/h (1 Bft) 94 %
07.05.2021 05:48 3,8 C 95 % 1008,7 hPa 0,0 l/m 0 min 0 min 0,000 mm 0,0 UV-I 0 W/m 3,1 C 3,8 C 8,0 km/h (2 Bft) 93 %
07.05.2021 05:46 3,8 C 95 % 1008,6 hPa 0,0 l/m 0 min 0 min 0,000 mm 0,0 UV-I 0 W/m 3,1 C 3,8 C 6,4 km/h (2 Bft) 91 %
07.05.2021 05:44 3,8 C 95 % 1008,6 hPa 0,0 l/m 0 min 0 min 0,000 mm 0,0 UV-I 0 W/m 3,1 C 3,8 C 0,0 km/h (0 Bft) 91 %
07.05.2021 05:42 3,8 C 95 % 1008,6 hPa 0,0 l/m 0 min 0 min 0,000 mm 0,0 UV-I 0 W/m 3,1 C 3,8 C 6,4 km/h (2 Bft) 94 %
07.05.2021 05:40 3,7 C 95 % 1008,6 hPa 0,0 l/m 0 min 0 min 0,000 mm 0,0 UV-I 0 W/m 3,0 C 3,7 C 9,7 km/h (2 Bft) 94 %
07.05.2021 05:38 3,8 C 95 % 1008,6 hPa 0,0 l/m 0 min 0 min 0,000 mm 0,0 UV-I 0 W/m 3,1 C 3,8 C 8,0 km/h (2 Bft) 98 %
07.05.2021 05:36 3,8 C 95 % 1008,6 hPa 0,0 l/m 0 min 0 min 0,000 mm 0,0 UV-I 0 W/m 3,1 C 3,8 C 9,7 km/h (2 Bft) 91 %
07.05.2021 05:34 3,8 C 95 % 1008,5 hPa 0,0 l/m 0 min 0 min 0,000 mm 0,0 UV-I 0 W/m 3,1 C 3,8 C 6,4 km/h (2 Bft) 94 %
07.05.2021 05:32 3,8 C 95 % 1008,5 hPa 0,0 l/m 0 min 0 min 0,000 mm 0,0 UV-I 0 W/m 3,1 C 3,8 C 4,8 km/h (1 Bft) 94 %
07.05.2021 05:30 3,8 C 95 % 1008,5 hPa 0,0 l/m 0 min 0 min 0,000 mm 0,0 UV-I 0 W/m 3,1 C 3,8 C 6,4 km/h (2 Bft) 94 %
07.05.2021 05:28 3,8 C 95 % 1008,4 hPa 0,0 l/m 0 min 0 min 0,000 mm 0,0 UV-I 0 W/m 3,1 C 3,8 C 6,4 km/h (2 Bft) 94 %
07.05.2021 05:26 3,8 C 95 % 1008,4 hPa 0,0 l/m 0 min 0 min 0,000 mm 0,0 UV-I 0 W/m 3,1 C 3,8 C 9,7 km/h (2 Bft) 96 %
07.05.2021 05:24 3,8 C 95 % 1008,4 hPa 0,0 l/m 0 min 0 min 0,000 mm 0,0 UV-I 0 W/m 3,1 C 3,8 C 9,7 km/h (2 Bft) 96 %
07.05.2021 05:22 3,9 C 95 % 1008,3 hPa 0,0 l/m 0 min 0 min 0,000 mm 0,0 UV-I 0 W/m 3,2 C 3,9 C 4,8 km/h (1 Bft) 98 %
07.05.2021 05:20 3,9 C 95 % 1008,3 hPa 0,0 l/m 0 min 0 min 0,000 mm 0,0 UV-I 0 W/m 3,2 C 3,9 C 6,4 km/h (2 Bft) 94 %
07.05.2021 05:18 3,9 C 95 % 1008,3 hPa 0,0 l/m 0 min 0 min 0,000 mm 0,0 UV-I 0 W/m 3,2 C 3,9 C 9,7 km/h (2 Bft) 98 %
07.05.2021 05:16 3,9 C 95 % 1008,3 hPa 0,0 l/m 0 min 0 min 0,000 mm 0,0 UV-I 0 W/m 3,2 C 3,9 C 11,3 km/h (2 Bft) 98 %
07.05.2021 05:14 3,9 C 95 % 1008,2 hPa 0,0 l/m 0 min 0 min 0,000 mm 0,0 UV-I 0 W/m 3,2 C 3,9 C 9,7 km/h (2 Bft) 96 %
07.05.2021 05:12 4,0 C 95 % 1008,2 hPa 0,0 l/m 0 min 0 min 0,000 mm 0,0 UV-I 0 W/m 3,3 C 4,0 C 6,4 km/h (2 Bft) 98 %
07.05.2021 05:10 4,0 C 95 % 1008,1 hPa 0,0 l/m 0 min 0 min 0,000 mm 0,0 UV-I 0 W/m 3,3 C 4,0 C 4,8 km/h (1 Bft) 96 %
07.05.2021 05:08 4,0 C 95 % 1008,1 hPa 0,0 l/m 0 min 0 min 0,000 mm 0,0 UV-I 0 W/m 3,3 C 4,0 C 6,4 km/h (2 Bft) 98 %
07.05.2021 05:06 4,0 C 95 % 1008,1 hPa 0,0 l/m 0 min 0 min 0,000 mm 0,0 UV-I 0 W/m 3,3 C 4,0 C 6,4 km/h (2 Bft) 98 %
07.05.2021 05:04 4,1 C 95 % 1008,1 hPa 0,0 l/m 0 min 0 min 0,000 mm 0,0 UV-I 0 W/m 3,4 C 4,1 C 6,4 km/h (2 Bft) 98 %
07.05.2021 05:02 4,1 C 95 % 1008,2 hPa 0,0 l/m 0 min 0 min 0,000 mm 0,0 UV-I 0 W/m 3,4 C 4,1 C 6,4 km/h (2 Bft) 100 %
07.05.2021 05:00 4,1 C 95 % 1008,1 hPa 0,0 l/m 0 min 0 min 0,000 mm 0,0 UV-I 0 W/m 3,4 C 4,1 C 4,8 km/h (1 Bft) 100 %
07.05.2021 04:58 4,1 C 95 % 1008,2 hPa 0,0 l/m 0 min 0 min 0,000 mm 0,0 UV-I 0 W/m 3,4 C 4,1 C 6,4 km/h (2 Bft) 98 %
07.05.2021 04:56 4,1 C 95 % 1008,1 hPa 0,0 l/m 0 min 0 min 0,000 mm 0,0 UV-I 0 W/m 3,4 C 4,1 C 8,0 km/h (2 Bft) 100 %
07.05.2021 04:54 4,1 C 95 % 1008,1 hPa 0,0 l/m 0 min 0 min 0,000 mm 0,0 UV-I 0 W/m 3,4 C 4,1 C 6,4 km/h (2 Bft) 100 %
07.05.2021 04:52 4,2 C 95 % 1008,0 hPa 0,0 l/m 0 min 0 min 0,000 mm 0,0 UV-I 0 W/m 3,5 C 4,2 C 11,3 km/h (2 Bft) 100 %
07.05.2021 04:50 4,2 C 95 % 1008,0 hPa 0,0 l/m 0 min 0 min 0,000 mm 0,0 UV-I 0 W/m 3,5 C 3,8 C 12,9 km/h (3 Bft) 98 %
07.05.2021 04:48 4,2 C 95 % 1008,1 hPa 0,0 l/m 0 min 0 min 0,000 mm 0,0 UV-I 0 W/m 3,5 C 4,2 C 4,8 km/h (1 Bft) 100 %
07.05.2021 04:46 4,2 C 95 % 1008,0 hPa 0,0 l/m 0 min 0 min 0,000 mm 0,0 UV-I 0 W/m 3,5 C 4,2 C 11,3 km/h (2 Bft) 98 %
07.05.2021 04:44 4,2 C 95 % 1008,0 hPa 0,0 l/m 0 min 0 min 0,000 mm 0,0 UV-I 0 W/m 3,5 C 4,2 C 0,0 km/h (0 Bft) 100 %
07.05.2021 04:42 4,2 C 95 % 1008,1 hPa 0,0 l/m 0 min 0 min 0,000 mm 0,0 UV-I 0 W/m 3,5 C 4,2 C 8,0 km/h (2 Bft) 100 %
07.05.2021 04:40 4,2 C 95 % 1008,1 hPa 0,0 l/m 0 min 0 min 0,000 mm 0,0 UV-I 0 W/m 3,5 C 4,2 C 11,3 km/h (2 Bft) 100 %
07.05.2021 04:38 4,3 C 95 % 1008,0 hPa 0,0 l/m 0 min 0 min 0,000 mm 0,0 UV-I 0 W/m 3,6 C 4,3 C 4,8 km/h (1 Bft) 100 %
07.05.2021 04:36 4,3 C 95 % 1008,0 hPa 0,0 l/m 0 min 0 min 0,000 mm 0,0 UV-I 0 W/m 3,6 C 4,3 C 9,7 km/h (2 Bft) 100 %
07.05.2021 04:34 4,3 C 95 % 1008,0 hPa 0,0 l/m 0 min 0 min 0,000 mm 0,0 UV-I 0 W/m 3,6 C 4,3 C 8,0 km/h (2 Bft) 100 %
07.05.2021 04:32 4,3 C 95 % 1008,0 hPa 0,0 l/m 0 min 0 min 0,000 mm 0,0 UV-I 0 W/m 3,6 C 4,3 C 6,4 km/h (2 Bft) 98 %
07.05.2021 04:30 4,3 C 95 % 1008,0 hPa 0,0 l/m 0 min 0 min 0,000 mm 0,0 UV-I 0 W/m 3,6 C 4,3 C 14,5 km/h (3 Bft) 98 %
07.05.2021 04:28 4,3 C 95 % 1008,0 hPa 0,0 l/m 0 min 0 min 0,000 mm 0,0 UV-I 0 W/m 3,6 C 3,8 C 14,5 km/h (3 Bft) 96 %
07.05.2021 04:26 4,3 C 95 % 1008,0 hPa 0,0 l/m 0 min 0 min 0,000 mm 0,0 UV-I 0 W/m 3,6 C 3,7 C 16,1 km/h (3 Bft) 98 %
07.05.2021 04:24 4,3 C 95 % 1007,9 hPa 0,0 l/m 0 min 0 min 0,000 mm 0,0 UV-I 0 W/m 3,6 C 2,1 C 12,9 km/h (3 Bft) 98 %
07.05.2021 04:22 4,3 C 95 % 1007,9 hPa 0,0 l/m 0 min 0 min 0,000 mm 0,0 UV-I 0 W/m 3,6 C 4,3 C 8,0 km/h (2 Bft) 96 %
07.05.2021 04:20 4,3 C 95 % 1007,9 hPa 0,0 l/m 0 min 0 min 0,000 mm 0,0 UV-I 0 W/m 3,6 C 4,3 C 16,1 km/h (3 Bft) 98 %
07.05.2021 04:18 4,3 C 95 % 1008,0 hPa 0,0 l/m 0 min 0 min 0,000 mm 0,0 UV-I 0 W/m 3,6 C 1,3 C 14,5 km/h (3 Bft) 98 %
07.05.2021 04:16 4,3 C 95 % 1007,9 hPa 0,0 l/m 0 min 0 min 0,000 mm 0,0 UV-I 0 W/m 3,6 C 0,3 C 19,3 km/h (3 Bft) 96 %
07.05.2021 04:14 4,3 C 95 % 1007,9 hPa 0,0 l/m 0 min 0 min 0,000 mm 0,0 UV-I 0 W/m 3,6 C 4,3 C 12,9 km/h (3 Bft) 98 %
07.05.2021 04:12 4,2 C 95 % 1007,9 hPa 0,0 l/m 0 min 0 min 0,000 mm 0,0 UV-I 0 W/m 3,5 C 3,0 C 12,9 km/h (3 Bft) 96 %
07.05.2021 04:10 4,2 C 95 % 1007,8 hPa 0,0 l/m 0 min 0 min 0,000 mm 0,0 UV-I 0 W/m 3,5 C 1,8 C 17,7 km/h (3 Bft) 96 %
07.05.2021 04:08 4,2 C 95 % 1007,8 hPa 0,0 l/m 0 min 0 min 0,000 mm 0,0 UV-I 0 W/m 3,5 C 2,9 C 14,5 km/h (3 Bft) 96 %
07.05.2021 04:06 4,3 C 95 % 1007,8 hPa 0,0 l/m 0 min 0 min 0,000 mm 0,0 UV-I 0 W/m 3,6 C 3,2 C 12,9 km/h (3 Bft) 96 %
07.05.2021 04:04 4,3 C 95 % 1007,8 hPa 0,0 l/m 0 min 0 min 0,000 mm 0,0 UV-I 0 W/m 3,6 C 4,3 C 14,5 km/h (3 Bft) 98 %
07.05.2021 04:02 4,3 C 95 % 1007,8 hPa 0,0 l/m 0 min 0 min 0,000 mm 0,0 UV-I 0 W/m 3,6 C 4,3 C 4,8 km/h (1 Bft) 96 %
07.05.2021 04:00 4,3 C 95 % 1007,7 hPa 0,0 l/m 0 min 0 min 0,000 mm 0,0 UV-I 0 W/m 3,6 C 4,3 C 9,7 km/h (2 Bft) 98 %
07.05.2021 03:58 4,3 C 95 % 1007,7 hPa 0,0 l/m 0 min 0 min 0,000 mm 0,0 UV-I 0 W/m 3,6 C 4,3 C 12,9 km/h (3 Bft) 98 %
07.05.2021 03:56 4,4 C 95 % 1007,7 hPa 0,0 l/m 0 min 0 min 0,000 mm 0,0 UV-I 0 W/m 3,7 C 4,4 C 16,1 km/h (3 Bft) 98 %
07.05.2021 03:54 4,4 C 95 % 1007,7 hPa 0,0 l/m 0 min 0 min 0,000 mm 0,0 UV-I 0 W/m 3,7 C 4,4 C 11,3 km/h (2 Bft) 98 %
07.05.2021 03:52 4,4 C 95 % 1007,7 hPa 0,0 l/m 0 min 0 min 0,000 mm 0,0 UV-I 0 W/m 3,7 C 4,4 C 16,1 km/h (3 Bft) 96 %
07.05.2021 03:50 4,4 C 95 % 1007,7 hPa 0,0 l/m 0 min 0 min 0,000 mm 0,0 UV-I 0 W/m 3,7 C 4,4 C 12,9 km/h (3 Bft) 96 %
07.05.2021 03:48 4,5 C 95 % 1007,7 hPa 0,0 l/m 0 min 0 min 0,000 mm 0,0 UV-I 0 W/m 3,8 C 4,5 C 11,3 km/h (2 Bft) 98 %
07.05.2021 03:46 4,5 C 95 % 1007,6 hPa 0,0 l/m 0 min 0 min 0,000 mm 0,0 UV-I 0 W/m 3,8 C 4,5 C 6,4 km/h (2 Bft) 98 %
07.05.2021 03:44 4,5 C 95 % 1007,6 hPa 0,0 l/m 0 min 0 min 0,000 mm 0,0 UV-I 0 W/m 3,8 C 4,5 C 6,4 km/h (2 Bft) 96 %
07.05.2021 03:42 4,5 C 95 % 1007,6 hPa 0,0 l/m 0 min 0 min 0,000 mm 0,0 UV-I 0 W/m 3,8 C 4,5 C 11,3 km/h (2 Bft) 98 %
07.05.2021 03:40 4,6 C 95 % 1007,6 hPa 0,0 l/m 0 min 0 min 0,000 mm 0,0 UV-I 0 W/m 3,9 C 4,6 C 12,9 km/h (3 Bft) 96 %
07.05.2021 03:38 4,6 C 95 % 1007,6 hPa 0,0 l/m 0 min 0 min 0,000 mm 0,0 UV-I 0 W/m 3,9 C 3,5 C 12,9 km/h (3 Bft) 96 %
07.05.2021 03:36 4,6 C 95 % 1007,6 hPa 0,0 l/m 0 min 0 min 0,000 mm 0,0 UV-I 0 W/m 3,9 C 4,6 C 11,3 km/h (2 Bft) 94 %
07.05.2021 03:34 4,6 C 95 % 1007,5 hPa 0,0 l/m 0 min 0 min 0,000 mm 0,0 UV-I 0 W/m 3,9 C 1,9 C 14,5 km/h (3 Bft) 96 %
07.05.2021 03:32 4,6 C 95 % 1007,5 hPa 0,0 l/m 0 min 0 min 0,000 mm 0,0 UV-I 0 W/m 3,9 C 4,1 C 11,3 km/h (2 Bft) 98 %
07.05.2021 03:30 4,6 C 95 % 1007,5 hPa 0,0 l/m 0 min 0 min 0,000 mm 0,0 UV-I 0 W/m 3,9 C 4,6 C 8,0 km/h (2 Bft) 98 %
07.05.2021 03:28 4,6 C 95 % 1007,5 hPa 0,0 l/m 0 min 0 min 0,000 mm 0,0 UV-I 0 W/m 3,9 C 3,2 C 12,9 km/h (3 Bft) 98 %
07.05.2021 03:26 4,6 C 95 % 1007,5 hPa 0,0 l/m 0 min 0 min 0,000 mm 0,0 UV-I 0 W/m 3,9 C 1,1 C 17,7 km/h (3 Bft) 100 %
07.05.2021 03:24 4,6 C 95 % 1007,5 hPa 0,0 l/m 0 min 0 min 0,000 mm 0,0 UV-I 0 W/m 3,9 C 0,1 C 19,3 km/h (3 Bft) 96 %
07.05.2021 03:22 4,6 C 95 % 1007,5 hPa 0,0 l/m 0 min 0 min 0,000 mm 0,0 UV-I 0 W/m 3,9 C 1,6 C 20,9 km/h (4 Bft) 98 %
07.05.2021 03:20 4,6 C 95 % 1007,5 hPa 0,0 l/m 0 min 0 min 0,000 mm 0,0 UV-I 0 W/m 3,9 C 1,8 C 16,1 km/h (3 Bft) 100 %
07.05.2021 03:18 4,6 C 95 % 1007,4 hPa 0,0 l/m 0 min 0 min 0,000 mm 0,0 UV-I 0 W/m 3,9 C 2,9 C 14,5 km/h (3 Bft) 98 %
07.05.2021 03:16 4,6 C 95 % 1007,5 hPa 0,0 l/m 0 min 0 min 0,000 mm 0,0 UV-I 0 W/m 3,9 C 1,9 C 14,5 km/h (3 Bft) 100 %
07.05.2021 03:14 4,6 C 95 % 1007,4 hPa 0,0 l/m 0 min 0 min 0,000 mm 0,0 UV-I 0 W/m 3,9 C 1,0 C 14,5 km/h (3 Bft) 98 %
07.05.2021 03:12 4,6 C 95 % 1007,5 hPa 0,0 l/m 0 min 0 min 0,000 mm 0,0 UV-I 0 W/m 3,9 C 2,6 C 14,5 km/h (3 Bft) 94 %
07.05.2021 03:10 4,6 C 95 % 1007,5 hPa 0,0 l/m 0 min 0 min 0,000 mm 0,0 UV-I 0 W/m 3,9 C 4,3 C 12,9 km/h (3 Bft) 98 %
07.05.2021 03:08 4,6 C 95 % 1007,4 hPa 0,0 l/m 0 min 0 min 0,000 mm 0,0 UV-I 0 W/m 3,9 C 1,5 C 16,1 km/h (3 Bft) 100 %
07.05.2021 03:06 4,6 C 95 % 1007,4 hPa 0,0 l/m 0 min 0 min 0,000 mm 0,0 UV-I 0 W/m 3,9 C 2,3 C 17,7 km/h (3 Bft) 98 %
07.05.2021 03:04 4,6 C 95 % 1007,4 hPa 0,0 l/m 0 min 0 min 0,000 mm 0,0 UV-I 0 W/m 3,9 C 3,0 C 17,7 km/h (3 Bft) 100 %
07.05.2021 03:02 4,6 C 95 % 1007,4 hPa 0,0 l/m 0 min 0 min 0,000 mm 0,0 UV-I 0 W/m 3,9 C 1,9 C 17,7 km/h (3 Bft) 97 %
07.05.2021 03:00 4,6 C 95 % 1007,4 hPa 0,0 l/m 0 min 0 min 0,000 mm 0,0 UV-I 0 W/m 3,9 C 4,6 C 9,7 km/h (2 Bft) 98 %
_ Min-Zeit 02:30 16:30 03:00 - - - - - - 02:30 10:56 04:44 11:22
Minimum _ 2,8 C 55 % 1007,4 hPa - - - - - - 0,5 C -4,0 C 0,0 km/h (0 Bft) 87 %
_ Max-Zeit 17:36 10:14 00:52 08:20 07:06 07:46 14:02 13:16 13:14 12:32 17:36 10:22 03:04
Maximum _ 12,4 C 99 % 1018,3 hPa 0,2 l/m 2 min 2 min 0,330 mm 5,7 UV-I 1129 W/m 6,1 C 12,4 C 33,8 km/h
W (5 Bft)
100 %
Durchschnitt _ 7,0 C 80 % 1013,7 hPa #1,4 l/m #0 min. #0 min. #0,000 mm 0,0 UV-I 0 W/m 3,5 C 6,0 C 9,8 km/h (2 Bft) 97 %